Time,TemperatureF,DewpointF,PressureIn,WindDirection,WindDirectionDegrees,WindSpeedMPH,WindSpeedGustMPH,Humidity,HourlyPrecipIn,Conditions,Clouds,dailyrainin,SolarRadiationWatts/m^2,SoftwareType,DateUTC
2013-09-22 00:02:00,61.2,48.9,29.75,South,179,4.0,6.0,64,0.00,,,0.00,0,WeatherCatV1.21B27,2013-09-22 05:02:00,
2013-09-22 00:03:00,61.1,48.8,29.75,South,179,4.0,6.0,64,0.00,,,0.00,0,WeatherCatV1.21B27,2013-09-22 05:03:00,
2013-09-22 00:04:00,61.1,49.2,29.75,South,182,5.0,11.0,65,0.00,,,0.00,0,WeatherCatV1.21B27,2013-09-22 05:04:00,
2013-09-22 00:07:00,61.0,48.7,29.75,South,182,5.0,7.0,64,0.00,,,0.00,0,WeatherCatV1.21B27,2013-09-22 05:07:00,
2013-09-22 00:08:00,61.0,48.7,29.75,South,179,0.0,7.0,64,0.00,,,0.00,0,WeatherCatV1.21B27,2013-09-22 05:08:00,
2013-09-22 00:09:00,61.0,48.7,29.75,South,182,1.0,7.0,64,0.00,,,0.00,0,WeatherCatV1.21B27,2013-09-22 05:09:00,
2013-09-22 00:10:00,60.9,48.6,29.75,South,182,4.0,4.0,64,0.00,,,0.00,0,WeatherCatV1.21B27,2013-09-22 05:10:00,
2013-09-22 00:12:00,60.9,48.6,29.75,South,182,0.0,9.0,64,0.00,,,0.00,0,WeatherCatV1.21B27,2013-09-22 05:12:00,
2013-09-22 00:13:00,60.9,49.0,29.75,South,181,3.0,9.0,65,0.00,,,0.00,0,WeatherCatV1.21B27,2013-09-22 05:13:00,
2013-09-22 00:14:00,60.9,48.6,29.75,South,179,2.0,6.0,64,0.00,,,0.00,0,WeatherCatV1.21B27,2013-09-22 05:14:00,
2013-09-22 00:15:00,60.9,49.0,29.75,South,179,4.0,5.0,65,0.00,,,0.00,0,WeatherCatV1.21B27,2013-09-22 05:15:00,
2013-09-22 00:17:00,60.9,48.6,29.75,South,174,0.0,9.0,64,0.00,,,0.00,0,WeatherCatV1.21B27,2013-09-22 05:17:00,
2013-09-22 00:18:00,60.9,48.6,29.75,South,190,7.0,9.0,64,0.00,,,0.00,0,WeatherCatV1.21B27,2013-09-22 05:18:00,
2013-09-22 00:20:00,60.9,48.6,29.75,South,185,1.0,8.0,64,0.00,,,0.00,0,WeatherCatV1.21B27,2013-09-22 05:20:00,
2013-09-22 00:21:00,60.9,48.6,29.75,South,191,8.0,10.0,64,0.00,,,0.00,0,WeatherCatV1.21B27,2013-09-22 05:21:00,
2013-09-22 00:22:00,61.0,48.7,29.75,South,186,2.0,10.0,64,0.00,,,0.00,0,WeatherCatV1.21B27,2013-09-22 05:22:00,
2013-09-22 00:23:00,61.0,48.7,29.75,South,184,2.0,7.0,64,0.00,,,0.00,0,WeatherCatV1.21B27,2013-09-22 05:23:00,
2013-09-22 00:25:00,61.0,48.7,29.75,SSW,192,1.0,7.0,64,0.00,,,0.00,0,WeatherCatV1.21B27,2013-09-22 05:25:00,
2013-09-22 00:26:00,61.0,48.7,29.75,South,178,0.0,7.0,64,0.00,,,0.00,0,WeatherCatV1.21B27,2013-09-22 05:26:00,
2013-09-22 00:28:00,61.0,48.7,29.75,South,187,4.0,6.0,64,0.00,,,0.00,0,WeatherCatV1.21B27,2013-09-22 05:28:00,
2013-09-22 00:30:00,60.9,48.6,29.75,South,186,3.0,5.0,64,0.00,,,0.00,0,WeatherCatV1.21B27,2013-09-22 05:30:00,
2013-09-22 00:32:00,60.9,48.6,29.75,South,171,9.0,10.0,64,0.00,,,0.00,0,WeatherCatV1.21B27,2013-09-22 05:32:00,
2013-09-22 00:33:00,60.9,48.6,29.75,South,169,3.0,10.0,64,0.00,,,0.00,0,WeatherCatV1.21B27,2013-09-22 05:33:00,
2013-09-22 00:35:00,60.9,49.0,29.75,South,178,0.0,4.0,65,0.00,,,0.00,0,WeatherCatV1.21B27,2013-09-22 05:35:00,
2013-09-22 00:37:00,60.9,49.0,29.75,South,178,2.0,6.0,65,0.00,,,0.00,0,WeatherCatV1.21B27,2013-09-22 05:37:00,
2013-09-22 00:38:00,60.9,49.0,29.75,South,178,1.0,6.0,65,0.00,,,0.00,0,WeatherCatV1.21B27,2013-09-22 05:38:00,
2013-09-22 00:40:00,60.7,48.9,29.75,South,173,1.0,6.0,65,0.00,,,0.00,0,WeatherCatV1.21B27,2013-09-22 05:40:00,
2013-09-22 00:43:00,60.7,48.9,29.75,South,173,3.0,7.0,65,0.00,,,0.00,0,WeatherCatV1.21B27,2013-09-22 05:43:00,
2013-09-22 00:45:00,60.6,48.8,29.75,South,175,0.0,5.0,65,0.00,,,0.00,0,WeatherCatV1.21B27,2013-09-22 05:45:00,
2013-09-22 00:48:00,60.5,49.1,29.75,South,186,5.0,7.0,66,0.00,,,0.00,0,WeatherCatV1.21B27,2013-09-22 05:48:00,
2013-09-22 00:50:00,60.6,48.8,29.75,South,172,1.0,7.0,65,0.00,,,0.00,0,WeatherCatV1.21B27,2013-09-22 05:50:00,
2013-09-22 00:53:00,60.6,48.8,29.75,South,179,5.0,7.0,65,0.00,,,0.00,0,WeatherCatV1.21B27,2013-09-22 05:53:00,
2013-09-22 00:54:00,60.6,49.2,29.75,South,177,3.0,7.0,66,0.00,,,0.00,0,WeatherCatV1.21B27,2013-09-22 05:54:00,
2013-09-22 00:56:00,60.5,49.1,29.75,SSE,164,4.0,6.0,66,0.00,,,0.00,0,WeatherCatV1.21B27,2013-09-22 05:56:00,
2013-09-22 00:58:00,60.5,49.1,29.75,South,186,5.0,7.0,66,0.00,,,0.00,0,WeatherCatV1.21B27,2013-09-22 05:58:00,
2013-09-22 00:59:00,60.5,49.1,29.75,South,184,3.0,7.0,66,0.00,,,0.00,0,WeatherCatV1.21B27,2013-09-22 05:59:00,
2013-09-22 01:02:00,60.6,48.8,29.74,SSW,193,2.0,10.0,65,0.00,,,0.00,0,WeatherCatV1.21B27,2013-09-22 06:02:00,
2013-09-22 01:03:00,60.6,48.8,29.74,South,187,4.0,10.0,65,0.00,,,0.00,0,WeatherCatV1.21B27,2013-09-22 06:03:00,
2013-09-22 01:04:00,60.7,48.9,29.75,SW,215,3.0,10.0,65,0.00,,,0.00,0,WeatherCatV1.21B27,2013-09-22 06:04:00,
2013-09-22 01:07:00,60.8,49.0,29.75,South,175,1.0,5.0,65,0.00,,,0.00,0,WeatherCatV1.21B27,2013-09-22 06:07:00,
2013-09-22 01:08:00,60.8,49.0,29.74,SSW,203,9.0,11.0,65,0.00,,,0.00,0,WeatherCatV1.21B27,2013-09-22 06:08:00,
2013-09-22 01:10:00,60.9,48.6,29.74,South,178,3.0,14.0,64,0.00,,,0.00,0,WeatherCatV1.21B27,2013-09-22 06:10:00,
2013-09-22 01:12:00,61.0,48.7,29.74,SSE,156,3.0,7.0,64,0.00,,,0.00,0,WeatherCatV1.21B27,2013-09-22 06:12:00,
2013-09-22 01:13:00,61.0,48.7,29.74,South,181,7.0,11.0,64,0.00,,,0.00,0,WeatherCatV1.21B27,2013-09-22 06:13:00,
2013-09-22 01:14:00,61.0,48.7,29.74,South,180,4.0,11.0,64,0.00,,,0.00,0,WeatherCatV1.21B27,2013-09-22 06:14:00,
2013-09-22 01:15:00,61.0,48.7,29.75,South,190,5.0,9.0,64,0.00,,,0.00,0,WeatherCatV1.21B27,2013-09-22 06:15:00,
2013-09-22 01:17:00,61.0,48.7,29.74,SSW,198,4.0,10.0,64,0.00,,,0.00,0,WeatherCatV1.21B27,2013-09-22 06:17:00,
2013-09-22 01:18:00,60.9,48.6,29.74,SSW,200,2.0,5.0,64,0.00,,,0.00,0,WeatherCatV1.21B27,2013-09-22 06:18:00,
2013-09-22 01:19:00,60.9,48.6,29.75,SSW,198,5.0,5.0,64,0.00,,,0.00,0,WeatherCatV1.21B27,2013-09-22 06:19:00,
2013-09-22 01:20:00,60.9,48.6,29.74,SSW,197,2.0,5.0,64,0.00,,,0.00,0,WeatherCatV1.21B27,2013-09-22 06:20:00,
2013-09-22 01:22:00,60.8,49.0,29.75,SSW,198,5.0,9.0,65,0.00,,,0.00,0,WeatherCatV1.21B27,2013-09-22 06:22:00,
2013-09-22 01:24:00,60.8,49.0,29.75,SSW,204,1.0,6.0,65,0.00,,,0.00,0,WeatherCatV1.21B27,2013-09-22 06:24:00,
2013-09-22 01:25:00,60.7,48.9,29.75,SSW,198,9.0,9.0,65,0.00,,,0.00,0,WeatherCatV1.21B27,2013-09-22 06:25:00,
2013-09-22 01:28:00,60.7,48.9,29.75,South,183,5.0,10.0,65,0.00,,,0.00,0,WeatherCatV1.21B27,2013-09-22 06:28:00,
2013-09-22 01:29:00,60.7,48.9,29.75,South,172,5.0,10.0,65,0.00,,,0.00,0,WeatherCatV1.21B27,2013-09-22 06:29:00,
2013-09-22 01:30:00,60.7,48.9,29.74,SW,225,10.0,10.0,65,0.00,,,0.00,0,WeatherCatV1.21B27,2013-09-22 06:30:00,
2013-09-22 01:33:00,60.8,48.5,29.75,SSW,203,4.0,9.0,64,0.00,,,0.00,0,WeatherCatV1.21B27,2013-09-22 06:33:00,
2013-09-22 01:34:00,60.8,48.5,29.74,SSW,199,6.0,9.0,64,0.00,,,0.00,0,WeatherCatV1.21B27,2013-09-22 06:34:00,
2013-09-22 01:35:00,60.9,48.6,29.74,South,172,3.0,9.0,64,0.00,,,0.00,0,WeatherCatV1.21B27,2013-09-22 06:35:00,
2013-09-22 01:38:00,60.9,48.6,29.75,SSW,210,5.0,12.0,64,0.00,,,0.00,0,WeatherCatV1.21B27,2013-09-22 06:38:00,
2013-09-22 01:39:00,60.9,48.6,29.74,South,186,5.0,12.0,64,0.00,,,0.00,0,WeatherCatV1.21B27,2013-09-22 06:39:00,
2013-09-22 01:40:00,60.9,48.6,29.74,South,188,2.0,12.0,64,0.00,,,0.00,0,WeatherCatV1.21B27,2013-09-22 06:40:00,
2013-09-22 01:43:00,60.9,48.6,29.75,SSE,163,7.0,7.0,64,0.00,,,0.00,0,WeatherCatV1.21B27,2013-09-22 06:43:00,
2013-09-22 01:44:00,60.9,48.6,29.75,SSW,196,3.0,9.0,64,0.00,,,0.00,0,WeatherCatV1.21B27,2013-09-22 06:44:00,
2013-09-22 01:45:00,60.9,48.6,29.74,SW,215,3.0,11.0,64,0.00,,,0.00,0,WeatherCatV1.21B27,2013-09-22 06:45:00,
2013-09-22 01:49:00,60.8,49.0,29.74,South,183,5.0,7.0,65,0.00,,,0.00,0,WeatherCatV1.21B27,2013-09-22 06:49:00,
2013-09-22 01:50:00,60.8,49.0,29.74,SSE,158,5.0,9.0,65,0.00,,,0.00,0,WeatherCatV1.21B27,2013-09-22 06:50:00,
2013-09-22 01:51:00,60.7,48.9,29.74,SSE,158,1.0,9.0,65,0.00,,,0.00,0,WeatherCatV1.21B27,2013-09-22 06:51:00,
2013-09-22 01:54:00,60.8,49.0,29.75,SW,215,7.0,12.0,65,0.00,,,0.00,0,WeatherCatV1.21B27,2013-09-22 06:54:00,
2013-09-22 01:55:00,60.8,49.0,29.74,SSW,198,6.0,12.0,65,0.00,,,0.00,0,WeatherCatV1.21B27,2013-09-22 06:55:00,
2013-09-22 01:56:00,60.8,49.0,29.74,SSW,192,3.0,9.0,65,0.00,,,0.00,0,WeatherCatV1.21B27,2013-09-22 06:56:00,
2013-09-22 01:59:00,60.9,48.6,29.74,South,169,3.0,11.0,64,0.00,,,0.00,0,WeatherCatV1.21B27,2013-09-22 06:59:00,
2013-09-22 02:00:00,60.9,48.6,29.74,SSW,193,4.0,11.0,64,0.00,,,0.00,0,WeatherCatV1.21B27,2013-09-22 07:00:00,
2013-09-22 02:01:00,60.9,48.6,29.74,South,173,6.0,11.0,64,0.00,,,0.00,0,WeatherCatV1.21B27,2013-09-22 07:01:00,
2013-09-22 02:04:00,60.8,49.0,29.74,South,170,4.0,7.0,65,0.00,,,0.00,0,WeatherCatV1.21B27,2013-09-22 07:04:00,
2013-09-22 02:05:00,60.8,49.0,29.74,SSW,206,8.0,14.0,65,0.00,,,0.00,0,WeatherCatV1.21B27,2013-09-22 07:05:00,
2013-09-22 02:06:00,60.7,48.9,29.74,South,178,11.0,14.0,65,0.00,,,0.00,0,WeatherCatV1.21B27,2013-09-22 07:06:00,
2013-09-22 02:10:00,60.6,48.8,29.74,SW,217,5.0,10.0,65,0.00,,,0.00,0,WeatherCatV1.21B27,2013-09-22 07:10:00,
2013-09-22 02:11:00,60.5,49.1,29.74,SW,219,11.0,11.0,66,0.00,,,0.00,0,WeatherCatV1.21B27,2013-09-22 07:11:00,
2013-09-22 02:15:00,60.2,48.8,29.75,South,182,3.0,8.0,66,0.00,,,0.00,0,WeatherCatV1.21B27,2013-09-22 07:15:00,
2013-09-22 02:16:00,60.2,48.8,29.75,South,175,3.0,8.0,66,0.00,,,0.00,0,WeatherCatV1.21B27,2013-09-22 07:16:00,
2013-09-22 02:17:00,60.1,49.1,29.75,SSW,199,1.0,6.0,67,0.00,,,0.00,0,WeatherCatV1.21B27,2013-09-22 07:17:00,
2013-09-22 02:20:00,59.8,48.8,29.75,SSE,166,4.0,7.0,67,0.00,,,0.00,0,WeatherCatV1.21B27,2013-09-22 07:20:00,
2013-09-22 02:21:00,59.7,48.7,29.75,SSE,166,1.0,4.0,67,0.00,,,0.00,0,WeatherCatV1.21B27,2013-09-22 07:21:00,
2013-09-22 02:22:00,59.6,48.6,29.75,South,183,1.0,7.0,67,0.00,,,0.00,0,WeatherCatV1.21B27,2013-09-22 07:22:00,
2013-09-22 02:25:00,59.4,48.8,29.75,South,178,3.0,5.0,68,0.00,,,0.00,0,WeatherCatV1.21B27,2013-09-22 07:25:00,
2013-09-22 02:26:00,59.3,48.7,29.75,South,178,3.0,5.0,68,0.00,,,0.00,0,WeatherCatV1.21B27,2013-09-22 07:26:00,
2013-09-22 02:27:00,59.2,48.6,29.75,South,176,1.0,10.0,68,0.00,,,0.00,0,WeatherCatV1.21B27,2013-09-22 07:27:00,
2013-09-22 02:30:00,59.0,48.5,29.75,South,185,5.0,7.0,68,0.00,,,0.00,0,WeatherCatV1.21B27,2013-09-22 07:30:00,
2013-09-22 02:31:00,59.0,48.8,29.75,South,185,2.0,7.0,69,0.00,,,0.00,0,WeatherCatV1.21B27,2013-09-22 07:31:00,
2013-09-22 02:32:00,59.0,48.8,29.75,South,191,5.0,6.0,69,0.00,,,0.00,0,WeatherCatV1.21B27,2013-09-22 07:32:00,
2013-09-22 02:35:00,59.0,48.8,29.74,South,191,3.0,7.0,69,0.00,,,0.00,0,WeatherCatV1.21B27,2013-09-22 07:35:00,
2013-09-22 02:36:00,59.0,48.8,29.74,SSW,193,3.0,7.0,69,0.00,,,0.00,0,WeatherCatV1.21B27,2013-09-22 07:36:00,
2013-09-22 02:37:00,59.0,48.8,29.74,South,190,5.0,7.0,69,0.00,,,0.00,0,WeatherCatV1.21B27,2013-09-22 07:37:00,
2013-09-22 02:40:00,58.8,49.0,29.74,South,183,3.0,6.0,70,0.00,,,0.00,0,WeatherCatV1.21B27,2013-09-22 07:40:00,
2013-09-22 02:41:00,58.7,48.9,29.74,South,184,1.0,6.0,70,0.00,,,0.00,0,WeatherCatV1.21B27,2013-09-22 07:41:00,
2013-09-22 02:42:00,58.7,48.9,29.74,South,184,3.0,5.0,70,0.00,,,0.00,0,WeatherCatV1.21B27,2013-09-22 07:42:00,
2013-09-22 02:45:00,58.6,48.8,29.74,South,184,2.0,6.0,70,0.00,,,0.00,0,WeatherCatV1.21B27,2013-09-22 07:45:00,
2013-09-22 02:46:00,58.5,48.8,29.74,South,178,3.0,5.0,70,0.00,,,0.00,0,WeatherCatV1.21B27,2013-09-22 07:46:00,
2013-09-22 02:47:00,58.5,49.1,29.74,South,178,2.0,6.0,71,0.00,,,0.00,0,WeatherCatV1.21B27,2013-09-22 07:47:00,
2013-09-22 02:50:00,58.3,48.9,29.74,South,187,0.0,7.0,71,0.00,,,0.00,0,WeatherCatV1.21B27,2013-09-22 07:50:00,
2013-09-22 02:51:00,58.3,48.9,29.74,South,187,4.0,7.0,71,0.00,,,0.00,0,WeatherCatV1.21B27,2013-09-22 07:51:00,
2013-09-22 02:52:00,58.2,48.8,29.74,South,187,2.0,5.0,71,0.00,,,0.00,0,WeatherCatV1.21B27,2013-09-22 07:52:00,
2013-09-22 02:53:00,58.2,48.8,29.74,South,187,0.0,5.0,71,0.00,,,0.00,0,WeatherCatV1.21B27,2013-09-22 07:53:00,
2013-09-22 02:56:00,58.0,49.0,29.74,South,176,2.0,4.0,72,0.00,,,0.00,0,WeatherCatV1.21B27,2013-09-22 07:56:00,
2013-09-22 02:58:00,57.8,48.8,29.74,South,176,4.0,5.0,72,0.00,,,0.00,0,WeatherCatV1.21B27,2013-09-22 07:58:00,
2013-09-22 03:01:00,57.7,48.7,29.74,South,176,5.0,6.0,72,0.00,,,0.00,0,WeatherCatV1.21B27,2013-09-22 08:01:00,
2013-09-22 03:02:00,57.6,49.0,29.74,South,176,1.0,6.0,73,0.00,,,0.00,0,WeatherCatV1.21B27,2013-09-22 08:02:00,
2013-09-22 03:03:00,57.6,48.6,29.74,South,177,3.0,3.0,72,0.00,,,0.00,0,WeatherCatV1.21B27,2013-09-22 08:03:00,
2013-09-22 03:04:00,57.6,49.0,29.74,South,175,4.0,7.0,73,0.00,,,0.00,0,WeatherCatV1.21B27,2013-09-22 08:04:00,
2013-09-22 03:06:00,57.5,48.9,29.74,South,175,1.0,3.0,73,0.00,,,0.00,0,WeatherCatV1.21B27,2013-09-22 08:06:00,
2013-09-22 03:07:00,57.4,48.8,29.74,South,175,0.0,3.0,73,0.00,,,0.00,0,WeatherCatV1.21B27,2013-09-22 08:07:00,
2013-09-22 03:08:00,57.3,48.7,29.74,South,175,2.0,2.0,73,0.00,,,0.00,0,WeatherCatV1.21B27,2013-09-22 08:08:00,
2013-09-22 03:09:00,57.3,48.7,29.74,South,175,0.0,2.0,73,0.00,,,0.00,0,WeatherCatV1.21B27,2013-09-22 08:09:00,
2013-09-22 03:10:00,57.2,48.6,29.74,South,173,1.0,4.0,73,0.00,,,0.00,0,WeatherCatV1.21B27,2013-09-22 08:10:00,
2013-09-22 03:12:00,57.2,49.0,29.74,South,173,1.0,5.0,74,0.00,,,0.00,0,WeatherCatV1.21B27,2013-09-22 08:12:00,
2013-09-22 03:13:00,57.2,49.0,29.74,South,173,4.0,5.0,74,0.00,,,0.00,0,WeatherCatV1.21B27,2013-09-22 08:13:00,
2013-09-22 03:14:00,57.1,48.9,29.74,South,173,3.0,4.0,74,0.00,,,0.00,0,WeatherCatV1.21B27,2013-09-22 08:14:00,
2013-09-22 03:16:00,57.1,48.9,29.74,South,169,3.0,9.0,74,0.00,,,0.00,0,WeatherCatV1.21B27,2013-09-22 08:16:00,
2013-09-22 03:17:00,57.1,48.9,29.74,South,169,1.0,6.0,74,0.00,,,0.00,0,WeatherCatV1.21B27,2013-09-22 08:17:00,
2013-09-22 03:18:00,57.1,48.9,29.74,South,171,0.0,5.0,74,0.00,,,0.00,0,WeatherCatV1.21B27,2013-09-22 08:18:00,
2013-09-22 03:19:00,57.1,48.9,29.74,South,175,2.0,6.0,74,0.00,,,0.00,0,WeatherCatV1.21B27,2013-09-22 08:19:00,
2013-09-22 03:21:00,57.1,48.9,29.74,South,184,0.0,9.0,74,0.00,,,0.00,0,WeatherCatV1.21B27,2013-09-22 08:21:00,
2013-09-22 03:22:00,57.1,48.9,29.74,South,183,5.0,9.0,74,0.00,,,0.00,0,WeatherCatV1.21B27,2013-09-22 08:22:00,
2013-09-22 03:23:00,57.1,48.9,29.74,South,184,1.0,6.0,74,0.00,,,0.00,0,WeatherCatV1.21B27,2013-09-22 08:23:00,
2013-09-22 03:25:00,57.1,48.9,29.74,South,182,3.0,6.0,74,0.00,,,0.00,0,WeatherCatV1.21B27,2013-09-22 08:25:00,
2013-09-22 03:26:00,57.1,48.9,29.74,South,188,0.0,9.0,74,0.00,,,0.00,0,WeatherCatV1.21B27,2013-09-22 08:26:00,
2013-09-22 03:27:00,57.1,48.9,29.74,South,186,9.0,9.0,74,0.00,,,0.00,0,WeatherCatV1.21B27,2013-09-22 08:27:00,
2013-09-22 03:29:00,57.1,48.9,29.74,South,169,0.0,6.0,74,0.00,,,0.00,0,WeatherCatV1.21B27,2013-09-22 08:29:00,
2013-09-22 03:30:00,57.1,48.9,29.74,SSE,168,4.0,5.0,74,0.00,,,0.00,0,WeatherCatV1.21B27,2013-09-22 08:30:00,
2013-09-22 03:31:00,57.1,48.9,29.74,South,169,5.0,5.0,74,0.00,,,0.00,0,WeatherCatV1.21B27,2013-09-22 08:31:00,
2013-09-22 03:32:00,57.2,49.0,29.74,SSE,161,2.0,6.0,74,0.00,,,0.00,0,WeatherCatV1.21B27,2013-09-22 08:32:00,
2013-09-22 03:34:00,57.1,48.9,29.74,SSE,163,1.0,6.0,74,0.00,,,0.00,0,WeatherCatV1.21B27,2013-09-22 08:34:00,
2013-09-22 03:35:00,57.1,48.9,29.74,SSE,161,0.0,6.0,74,0.00,,,0.00,0,WeatherCatV1.21B27,2013-09-22 08:35:00,
2013-09-22 03:36:00,57.1,48.9,29.74,SSE,162,0.0,5.0,74,0.00,,,0.00,0,WeatherCatV1.21B27,2013-09-22 08:36:00,
2013-09-22 03:38:00,57.0,48.8,29.74,South,169,9.0,9.0,74,0.00,,,0.00,0,WeatherCatV1.21B27,2013-09-22 08:38:00,
2013-09-22 03:39:00,57.0,48.8,29.74,South,172,2.0,9.0,74,0.00,,,0.00,0,WeatherCatV1.21B27,2013-09-22 08:39:00,
2013-09-22 03:41:00,56.9,48.7,29.74,South,170,3.0,5.0,74,0.00,,,0.00,0,WeatherCatV1.21B27,2013-09-22 08:41:00,
2013-09-22 03:42:00,56.9,48.7,29.74,South,170,2.0,5.0,74,0.00,,,0.00,0,WeatherCatV1.21B27,2013-09-22 08:42:00,
2013-09-22 03:43:00,56.9,49.1,29.74,South,169,0.0,5.0,75,0.00,,,0.00,0,WeatherCatV1.21B27,2013-09-22 08:43:00,
2013-09-22 03:44:00,56.9,49.1,29.74,South,169,4.0,5.0,75,0.00,,,0.00,0,WeatherCatV1.21B27,2013-09-22 08:44:00,
2013-09-22 03:47:00,56.8,49.0,29.74,South,170,5.0,6.0,75,0.00,,,0.00,0,WeatherCatV1.21B27,2013-09-22 08:47:00,
2013-09-22 03:48:00,56.7,48.9,29.74,South,170,0.0,6.0,75,0.00,,,0.00,0,WeatherCatV1.21B27,2013-09-22 08:48:00,
2013-09-22 03:49:00,56.7,48.9,29.74,South,169,2.0,3.0,75,0.00,,,0.00,0,WeatherCatV1.21B27,2013-09-22 08:49:00,
2013-09-22 03:52:00,56.6,48.8,29.74,South,169,0.0,2.0,75,0.00,,,0.00,0,WeatherCatV1.21B27,2013-09-22 08:52:00,
2013-09-22 03:53:00,56.6,49.1,29.74,South,169,2.0,4.0,76,0.00,,,0.00,0,WeatherCatV1.21B27,2013-09-22 08:53:00,
2013-09-22 03:54:00,56.5,49.0,29.74,South,169,0.0,5.0,76,0.00,,,0.00,0,WeatherCatV1.21B27,2013-09-22 08:54:00,
2013-09-22 03:57:00,56.4,48.9,29.74,SSE,168,0.0,5.0,76,0.00,,,0.00,0,WeatherCatV1.21B27,2013-09-22 08:57:00,
2013-09-22 03:58:00,56.4,48.9,29.74,SSE,168,2.0,6.0,76,0.00,,,0.00,0,WeatherCatV1.21B27,2013-09-22 08:58:00,
2013-09-22 03:59:00,56.3,48.8,29.74,South,169,3.0,6.0,76,0.00,,,0.00,0,WeatherCatV1.21B27,2013-09-22 08:59:00,
2013-09-22 04:02:00,56.2,48.7,29.74,South,170,1.0,3.0,76,0.00,,,0.00,0,WeatherCatV1.21B27,2013-09-22 09:02:00,
2013-09-22 04:03:00,56.1,48.6,29.74,South,170,0.0,3.0,76,0.00,,,0.00,0,WeatherCatV1.21B27,2013-09-22 09:03:00,
2013-09-22 04:05:00,56.0,48.9,29.74,South,170,1.0,4.0,77,0.00,,,0.00,0,WeatherCatV1.21B27,2013-09-22 09:05:00,
2013-09-22 04:07:00,55.9,48.8,29.74,South,170,3.0,3.0,77,0.00,,,0.00,0,WeatherCatV1.21B27,2013-09-22 09:07:00,
2013-09-22 04:08:00,55.9,48.8,29.74,South,170,0.0,3.0,77,0.00,,,0.00,0,WeatherCatV1.21B27,2013-09-22 09:08:00,
2013-09-22 04:10:00,55.8,48.7,29.74,South,171,0.0,5.0,77,0.00,,,0.00,0,WeatherCatV1.21B27,2013-09-22 09:10:00,
2013-09-22 04:12:00,55.7,49.0,29.74,South,170,4.0,6.0,78,0.00,,,0.00,0,WeatherCatV1.21B27,2013-09-22 09:12:00,
2013-09-22 04:13:00,55.7,48.6,29.74,South,169,2.0,6.0,77,0.00,,,0.00,0,WeatherCatV1.21B27,2013-09-22 09:13:00,
2013-09-22 04:14:00,55.6,48.8,29.74,South,171,2.0,6.0,78,0.00,,,0.00,0,WeatherCatV1.21B27,2013-09-22 09:14:00,
2013-09-22 04:15:00,55.6,48.8,29.74,SSE,166,0.0,5.0,78,0.00,,,0.00,0,WeatherCatV1.21B27,2013-09-22 09:15:00,
2013-09-22 04:17:00,55.6,48.8,29.74,SSE,165,0.0,3.0,78,0.00,,,0.00,0,WeatherCatV1.21B27,2013-09-22 09:17:00,
2013-09-22 04:18:00,55.6,48.8,29.74,SSE,167,3.0,5.0,78,0.00,,,0.00,0,WeatherCatV1.21B27,2013-09-22 09:18:00,
2013-09-22 04:19:00,55.6,48.8,29.74,SSE,165,0.0,5.0,78,0.00,,,0.00,0,WeatherCatV1.21B27,2013-09-22 09:19:00,
2013-09-22 04:20:00,55.6,48.8,29.74,SSE,162,5.0,5.0,78,0.00,,,0.00,0,WeatherCatV1.21B27,2013-09-22 09:20:00,
2013-09-22 04:22:00,55.6,48.8,29.74,SSE,161,0.0,4.0,78,0.00,,,0.00,0,WeatherCatV1.21B27,2013-09-22 09:22:00,
2013-09-22 04:23:00,55.5,48.8,29.74,SSE,162,0.0,2.0,78,0.00,,,0.00,0,WeatherCatV1.21B27,2013-09-22 09:23:00,
2013-09-22 04:24:00,55.5,48.8,29.74,SSE,162,0.0,2.0,78,0.00,,,0.00,0,WeatherCatV1.21B27,2013-09-22 09:24:00,
2013-09-22 04:25:00,55.5,48.8,29.74,SSE,162,2.0,2.0,78,0.00,,,0.00,0,WeatherCatV1.21B27,2013-09-22 09:25:00,
2013-09-22 04:27:00,55.5,48.8,29.74,SSE,161,1.0,3.0,78,0.00,,,0.00,0,WeatherCatV1.21B27,2013-09-22 09:27:00,
2013-09-22 04:29:00,55.5,48.8,29.73,SSE,161,3.0,4.0,78,0.00,,,0.00,0,WeatherCatV1.21B27,2013-09-22 09:29:00,
2013-09-22 04:30:00,55.5,48.8,29.74,SSE,161,0.0,4.0,78,0.00,,,0.00,0,WeatherCatV1.21B27,2013-09-22 09:30:00,
2013-09-22 04:32:00,55.4,49.0,29.74,SSE,161,0.0,4.0,79,0.00,,,0.00,0,WeatherCatV1.21B27,2013-09-22 09:32:00,
2013-09-22 04:34:00,55.4,49.0,29.74,SSE,161,2.0,4.0,79,0.00,,,0.00,0,WeatherCatV1.21B27,2013-09-22 09:34:00,
2013-09-22 04:35:00,55.4,49.0,29.74,SSE,164,5.0,5.0,79,0.00,,,0.00,0,WeatherCatV1.21B27,2013-09-22 09:35:00,
2013-09-22 04:36:00,55.4,49.0,29.74,SSE,164,4.0,5.0,79,0.00,,,0.00,0,WeatherCatV1.21B27,2013-09-22 09:36:00,
2013-09-22 04:37:00,55.5,49.1,29.74,SSE,165,2.0,5.0,79,0.00,,,0.00,0,WeatherCatV1.21B27,2013-09-22 09:37:00,
2013-09-22 04:39:00,55.5,49.1,29.74,SSE,166,2.0,5.0,79,0.00,,,0.00,0,WeatherCatV1.21B27,2013-09-22 09:39:00,
2013-09-22 04:40:00,55.5,49.1,29.74,SSE,163,6.0,6.0,79,0.00,,,0.00,0,WeatherCatV1.21B27,2013-09-22 09:40:00,
2013-09-22 04:41:00,55.5,49.1,29.74,SSE,163,4.0,6.0,79,0.00,,,0.00,0,WeatherCatV1.21B27,2013-09-22 09:41:00,
2013-09-22 04:43:00,55.5,49.1,29.74,SSE,158,1.0,6.0,79,0.00,,,0.00,0,WeatherCatV1.21B27,2013-09-22 09:43:00,
2013-09-22 04:44:00,55.5,49.1,29.74,SSE,158,4.0,5.0,79,0.00,,,0.00,0,WeatherCatV1.21B27,2013-09-22 09:44:00,
2013-09-22 04:45:00,55.5,49.1,29.74,SSE,158,2.0,4.0,79,0.00,,,0.00,0,WeatherCatV1.21B27,2013-09-22 09:45:00,
2013-09-22 04:46:00,55.5,49.1,29.74,SSE,158,2.0,4.0,79,0.00,,,0.00,0,WeatherCatV1.21B27,2013-09-22 09:46:00,
2013-09-22 04:48:00,55.5,49.1,29.74,SSE,157,1.0,2.0,79,0.00,,,0.00,0,WeatherCatV1.21B27,2013-09-22 09:48:00,
2013-09-22 04:49:00,55.4,49.0,29.74,SSE,157,1.0,4.0,79,0.00,,,0.00,0,WeatherCatV1.21B27,2013-09-22 09:49:00,
2013-09-22 04:50:00,55.4,49.0,29.74,SSE,159,2.0,4.0,79,0.00,,,0.00,0,WeatherCatV1.21B27,2013-09-22 09:50:00,
2013-09-22 04:51:00,55.4,49.0,29.74,SSE,159,1.0,4.0,79,0.00,,,0.00,0,WeatherCatV1.21B27,2013-09-22 09:51:00,
2013-09-22 04:52:00,55.4,49.0,29.74,SSE,159,3.0,4.0,79,0.00,,,0.00,0,WeatherCatV1.21B27,2013-09-22 09:52:00,
2013-09-22 04:53:00,55.4,49.0,29.74,SSE,159,0.0,4.0,79,0.00,,,0.00,0,WeatherCatV1.21B27,2013-09-22 09:53:00,
2013-09-22 04:54:00,55.4,49.0,29.74,SSE,159,1.0,3.0,79,0.00,,,0.00,0,WeatherCatV1.21B27,2013-09-22 09:54:00,
2013-09-22 04:55:00,55.4,49.0,29.74,SSE,163,2.0,7.0,79,0.00,,,0.00,0,WeatherCatV1.21B27,2013-09-22 09:55:00,
2013-09-22 04:56:00,55.4,49.0,29.74,SSE,163,0.0,7.0,79,0.00,,,0.00,0,WeatherCatV1.21B27,2013-09-22 09:56:00,
2013-09-22 04:58:00,55.4,49.0,29.74,SSE,163,0.0,2.0,79,0.00,,,0.00,0,WeatherCatV1.21B27,2013-09-22 09:58:00,
2013-09-22 04:59:00,55.4,49.0,29.74,SSE,164,3.0,5.0,79,0.00,,,0.00,0,WeatherCatV1.21B27,2013-09-22 09:59:00,
2013-09-22 05:00:00,55.4,49.0,29.74,SSE,165,2.0,4.0,79,0.00,,,0.00,0,WeatherCatV1.21B27,2013-09-22 10:00:00,
2013-09-22 05:02:00,55.4,49.0,29.74,South,169,2.0,5.0,79,0.00,,,0.00,0,WeatherCatV1.21B27,2013-09-22 10:02:00,
2013-09-22 05:03:00,55.4,49.0,29.74,South,169,1.0,3.0,79,0.00,,,0.00,0,WeatherCatV1.21B27,2013-09-22 10:03:00,
2013-09-22 05:04:00,55.5,49.1,29.74,SSE,165,5.0,5.0,79,0.00,,,0.00,0,WeatherCatV1.21B27,2013-09-22 10:04:00,
2013-09-22 05:05:00,55.5,49.1,29.74,SSE,165,0.0,5.0,79,0.00,,,0.00,0,WeatherCatV1.21B27,2013-09-22 10:05:00,
2013-09-22 05:07:00,55.5,49.1,29.74,SSE,166,3.0,5.0,79,0.00,,,0.00,0,WeatherCatV1.21B27,2013-09-22 10:07:00,
2013-09-22 05:08:00,55.5,49.1,29.74,SSE,165,4.0,5.0,79,0.00,,,0.00,0,WeatherCatV1.21B27,2013-09-22 10:08:00,
2013-09-22 05:09:00,55.5,49.1,29.74,SSE,165,2.0,4.0,79,0.00,,,0.00,0,WeatherCatV1.21B27,2013-09-22 10:09:00,
2013-09-22 05:11:00,55.5,49.1,29.74,SSE,167,4.0,6.0,79,0.00,,,0.00,0,WeatherCatV1.21B27,2013-09-22 10:11:00,
2013-09-22 05:13:00,55.5,49.1,29.74,SSE,168,2.0,5.0,79,0.00,,,0.00,0,WeatherCatV1.21B27,2013-09-22 10:13:00,
2013-09-22 05:14:00,55.5,49.1,29.74,South,169,0.0,5.0,79,0.00,,,0.00,0,WeatherCatV1.21B27,2013-09-22 10:14:00,
2013-09-22 05:15:00,55.5,49.1,29.74,South,175,5.0,7.0,79,0.00,,,0.00,0,WeatherCatV1.21B27,2013-09-22 10:15:00,
2013-09-22 05:16:00,55.5,49.1,29.74,SSE,168,1.0,7.0,79,0.00,,,0.00,0,WeatherCatV1.21B27,2013-09-22 10:16:00,
2013-09-22 05:18:00,55.5,49.1,29.74,SSE,168,3.0,6.0,79,0.00,,,0.00,0,WeatherCatV1.21B27,2013-09-22 10:18:00,
2013-09-22 05:19:00,55.5,49.1,29.74,South,169,1.0,5.0,79,0.00,,,0.00,0,WeatherCatV1.21B27,2013-09-22 10:19:00,
2013-09-22 05:20:00,55.5,49.1,29.74,South,170,4.0,5.0,79,0.00,,,0.00,0,WeatherCatV1.21B27,2013-09-22 10:20:00,
2013-09-22 05:21:00,55.5,49.1,29.74,South,171,2.0,6.0,79,0.00,,,0.00,0,WeatherCatV1.21B27,2013-09-22 10:21:00,
2013-09-22 05:23:00,55.5,49.1,29.75,SSE,150,3.0,7.0,79,0.00,,,0.00,0,WeatherCatV1.21B27,2013-09-22 10:23:00,
2013-09-22 05:24:00,55.5,49.1,29.75,SSE,156,4.0,7.0,79,0.00,,,0.00,0,WeatherCatV1.21B27,2013-09-22 10:24:00,
2013-09-22 05:25:00,55.5,49.1,29.75,SSE,159,3.0,6.0,79,0.00,,,0.00,0,WeatherCatV1.21B27,2013-09-22 10:25:00,
2013-09-22 05:27:00,55.5,49.1,29.75,SSE,159,1.0,3.0,79,0.00,,,0.00,0,WeatherCatV1.21B27,2013-09-22 10:27:00,
2013-09-22 05:28:00,55.5,49.1,29.75,SSE,163,3.0,6.0,79,0.00,,,0.00,0,WeatherCatV1.21B27,2013-09-22 10:28:00,
2013-09-22 05:29:00,55.5,49.1,29.75,SSE,165,1.0,6.0,79,0.00,,,0.00,0,WeatherCatV1.21B27,2013-09-22 10:29:00,
2013-09-22 05:30:00,55.4,49.0,29.75,SSE,166,1.0,5.0,79,0.00,,,0.00,0,WeatherCatV1.21B27,2013-09-22 10:30:00,
2013-09-22 05:32:00,55.4,49.0,29.75,SSE,167,2.0,5.0,79,0.00,,,0.00,0,WeatherCatV1.21B27,2013-09-22 10:32:00,
2013-09-22 05:33:00,55.4,49.0,29.74,SSE,167,1.0,5.0,79,0.00,,,0.00,0,WeatherCatV1.21B27,2013-09-22 10:33:00,
2013-09-22 05:34:00,55.3,48.9,29.75,South,170,4.0,6.0,79,0.00,,,0.00,0,WeatherCatV1.21B27,2013-09-22 10:34:00,
2013-09-22 05:35:00,55.3,48.9,29.75,South,172,3.0,6.0,79,0.00,,,0.00,0,WeatherCatV1.21B27,2013-09-22 10:35:00,
2013-09-22 05:37:00,55.3,48.9,29.75,South,172,0.0,5.0,79,0.00,,,0.00,0,WeatherCatV1.21B27,2013-09-22 10:37:00,
2013-09-22 05:38:00,55.3,48.9,29.74,South,173,3.0,5.0,79,0.00,,,0.00,0,WeatherCatV1.21B27,2013-09-22 10:38:00,
2013-09-22 05:39:00,55.3,48.9,29.75,South,169,1.0,6.0,79,0.00,,,0.00,0,WeatherCatV1.21B27,2013-09-22 10:39:00,
2013-09-22 05:40:00,55.2,48.8,29.75,South,169,0.0,6.0,79,0.00,,,0.00,0,WeatherCatV1.21B27,2013-09-22 10:40:00,
2013-09-22 05:41:00,55.2,48.8,29.75,South,169,0.0,6.0,79,0.00,,,0.00,0,WeatherCatV1.21B27,2013-09-22 10:41:00,
2013-09-22 05:42:00,55.2,48.8,29.74,SSE,167,1.0,7.0,79,0.00,,,0.00,0,WeatherCatV1.21B27,2013-09-22 10:42:00,
2013-09-22 05:43:00,55.2,48.8,29.75,SSE,167,1.0,7.0,79,0.00,,,0.00,0,WeatherCatV1.21B27,2013-09-22 10:43:00,
2013-09-22 05:45:00,55.1,48.7,29.75,SSE,167,3.0,6.0,79,0.00,,,0.00,0,WeatherCatV1.21B27,2013-09-22 10:45:00,
2013-09-22 05:46:00,55.1,48.7,29.74,SSE,167,2.0,4.0,79,0.00,,,0.00,0,WeatherCatV1.21B27,2013-09-22 10:46:00,
2013-09-22 05:47:00,55.1,48.7,29.74,SSE,168,3.0,5.0,79,0.00,,,0.00,0,WeatherCatV1.21B27,2013-09-22 10:47:00,
2013-09-22 05:48:00,55.1,48.7,29.74,SSE,168,1.0,5.0,79,0.00,,,0.00,0,WeatherCatV1.21B27,2013-09-22 10:48:00,
2013-09-22 05:50:00,55.1,49.0,29.74,SSE,167,2.0,6.0,80,0.00,,,0.00,0,WeatherCatV1.21B27,2013-09-22 10:50:00,
2013-09-22 05:51:00,55.1,49.0,29.75,SSE,167,3.0,6.0,80,0.00,,,0.00,0,WeatherCatV1.21B27,2013-09-22 10:51:00,
2013-09-22 05:53:00,55.1,48.7,29.74,South,173,3.0,7.0,79,0.00,,,0.00,0,WeatherCatV1.21B27,2013-09-22 10:53:00,
2013-09-22 06:00:00,55.2,48.8,29.74,SSW,200,1.0,5.0,79,0.00,,,0.00,0,WeatherCatV1.21B27,2013-09-22 11:00:00,
2013-09-22 06:05:00,55.3,48.9,29.74,South,184,5.0,10.0,79,0.00,,,0.00,0,WeatherCatV1.21B27,2013-09-22 11:05:00,
2013-09-22 06:06:00,55.3,48.9,29.74,South,183,0.0,10.0,79,0.00,,,0.00,0,WeatherCatV1.21B27,2013-09-22 11:06:00,
2013-09-22 06:10:00,55.3,48.9,29.74,South,184,5.0,6.0,79,0.00,,,0.00,0,WeatherCatV1.21B27,2013-09-22 11:10:00,
2013-09-22 06:11:00,55.3,48.9,29.74,South,184,1.0,6.0,79,0.00,,,0.00,0,WeatherCatV1.21B27,2013-09-22 11:11:00,
2013-09-22 06:15:00,55.4,49.0,29.74,South,185,6.0,6.0,79,0.00,,,0.00,0,WeatherCatV1.21B27,2013-09-22 11:15:00,
2013-09-22 06:16:00,55.4,49.0,29.74,SSW,198,5.0,12.0,79,0.00,,,0.00,0,WeatherCatV1.21B27,2013-09-22 11:16:00,
2013-09-22 06:20:00,55.7,49.3,29.74,South,190,4.0,4.0,79,0.00,,,0.00,0,WeatherCatV1.21B27,2013-09-22 11:20:00,
2013-09-22 06:21:00,55.7,49.3,29.74,South,190,3.0,5.0,79,0.00,,,0.00,0,WeatherCatV1.21B27,2013-09-22 11:21:00,
2013-09-22 06:25:00,55.8,49.0,29.74,South,190,1.0,5.0,78,0.00,,,0.00,0,WeatherCatV1.21B27,2013-09-22 11:25:00,
2013-09-22 06:26:00,55.8,49.0,29.74,South,190,0.0,5.0,78,0.00,,,0.00,0,WeatherCatV1.21B27,2013-09-22 11:26:00,
2013-09-22 06:30:00,55.9,49.1,29.74,South,172,4.0,10.0,78,0.00,,,0.00,0,WeatherCatV1.21B27,2013-09-22 11:30:00,
2013-09-22 06:31:00,56.0,49.2,29.74,SSE,159,0.0,10.0,78,0.00,,,0.00,0,WeatherCatV1.21B27,2013-09-22 11:31:00,
2013-09-22 06:32:00,56.0,49.2,29.74,SSE,168,2.0,7.0,78,0.00,,,0.00,0,WeatherCatV1.21B27,2013-09-22 11:32:00,
2013-09-22 06:35:00,56.1,49.3,29.74,South,179,0.0,11.0,78,0.00,,,0.00,0,WeatherCatV1.21B27,2013-09-22 11:35:00,
2013-09-22 06:36:00,56.1,49.3,29.74,South,179,0.0,11.0,78,0.00,,,0.00,0,WeatherCatV1.21B27,2013-09-22 11:36:00,
2013-09-22 06:38:00,56.2,49.4,29.74,South,173,0.0,9.0,78,0.00,,,0.00,0,WeatherCatV1.21B27,2013-09-22 11:38:00,
2013-09-22 06:40:00,56.2,49.4,29.74,SSE,154,4.0,7.0,78,0.00,,,0.00,0,WeatherCatV1.21B27,2013-09-22 11:40:00,
2013-09-22 06:41:00,56.2,49.4,29.74,SSE,157,5.0,7.0,78,0.00,,,0.00,0,WeatherCatV1.21B27,2013-09-22 11:41:00,
2013-09-22 06:42:00,56.2,49.1,29.74,SSW,196,5.0,7.0,77,0.00,,,0.00,0,WeatherCatV1.21B27,2013-09-22 11:42:00,
2013-09-22 06:43:00,56.3,49.2,29.74,SSW,192,8.0,14.0,77,0.00,,,0.00,0,WeatherCatV1.21B27,2013-09-22 11:43:00,
2013-09-22 06:45:00,56.3,49.2,29.74,SSE,164,2.0,11.0,77,0.00,,,0.00,0,WeatherCatV1.21B27,2013-09-22 11:45:00,
2013-09-22 06:46:00,56.4,49.3,29.74,South,186,8.0,11.0,77,0.00,,,0.00,0,WeatherCatV1.21B27,2013-09-22 11:46:00,
2013-09-22 06:47:00,56.4,49.3,29.74,SSW,210,15.0,15.0,77,0.00,,,0.00,0,WeatherCatV1.21B27,2013-09-22 11:47:00,
2013-09-22 06:48:00,56.5,49.4,29.74,SSW,207,3.0,15.0,77,0.00,,,0.00,0,WeatherCatV1.21B27,2013-09-22 11:48:00,
2013-09-22 06:50:00,56.6,49.5,29.74,SSW,210,9.0,11.0,77,0.00,,,0.00,0,WeatherCatV1.21B27,2013-09-22 11:50:00,
2013-09-22 06:51:00,56.6,49.5,29.74,South,190,4.0,11.0,77,0.00,,,0.00,0,WeatherCatV1.21B27,2013-09-22 11:51:00,
2013-09-22 06:52:00,56.6,49.5,29.74,SSW,202,2.0,9.0,77,0.00,,,0.00,0,WeatherCatV1.21B27,2013-09-22 11:52:00,
2013-09-22 06:53:00,56.6,49.5,29.75,SSE,156,2.0,10.0,77,0.00,,,0.00,0,WeatherCatV1.21B27,2013-09-22 11:53:00,
2013-09-22 06:56:00,56.6,49.5,29.74,South,188,5.0,10.0,77,0.00,,,0.00,0,WeatherCatV1.21B27,2013-09-22 11:56:00,
2013-09-22 06:57:00,56.6,49.5,29.74,SSW,192,2.0,10.0,77,0.00,,,0.00,0,WeatherCatV1.21B27,2013-09-22 11:57:00,
2013-09-22 06:59:00,56.5,49.4,29.74,SSE,161,11.0,11.0,77,0.00,,,0.00,0,WeatherCatV1.21B27,2013-09-22 11:59:00,
2013-09-22 07:01:00,56.5,49.7,29.75,South,176,7.0,11.0,78,0.00,,,0.00,0,WeatherCatV1.21B27,2013-09-22 12:01:00,
2013-09-22 07:02:00,56.5,49.7,29.75,SSE,161,6.0,6.0,78,0.00,,,0.00,0,WeatherCatV1.21B27,2013-09-22 12:02:00,
2013-09-22 07:03:00,56.4,49.3,29.75,SSE,161,0.0,6.0,77,0.00,,,0.00,0,WeatherCatV1.21B27,2013-09-22 12:03:00,
2013-09-22 07:04:00,56.4,49.6,29.74,SSW,200,1.0,10.0,78,0.00,,,0.00,0,WeatherCatV1.21B27,2013-09-22 12:04:00,
2013-09-22 07:06:00,56.4,49.6,29.75,SSE,168,4.0,5.0,78,0.00,,,0.00,0,WeatherCatV1.21B27,2013-09-22 12:06:00,
2013-09-22 07:07:00,56.4,49.6,29.74,SSW,198,2.0,10.0,78,0.00,,,0.00,0,WeatherCatV1.21B27,2013-09-22 12:07:00,
2013-09-22 07:08:00,56.4,49.6,29.74,South,175,4.0,10.0,78,0.00,,,0.00,0,WeatherCatV1.21B27,2013-09-22 12:08:00,
2013-09-22 07:09:00,56.3,49.5,29.75,South,187,6.0,10.0,78,0.00,,,0.00,0,WeatherCatV1.21B27,2013-09-22 12:09:00,
2013-09-22 07:11:00,56.3,49.5,29.75,SSE,160,1.0,7.0,78,0.00,,,0.00,0,WeatherCatV1.21B27,2013-09-22 12:11:00,
2013-09-22 07:12:00,56.3,49.5,29.75,SSE,167,3.0,7.0,78,0.00,,,0.00,0,WeatherCatV1.21B27,2013-09-22 12:12:00,
2013-09-22 07:13:00,56.3,49.5,29.75,South,183,3.0,7.0,78,0.00,,,0.00,0,WeatherCatV1.21B27,2013-09-22 12:13:00,
2013-09-22 07:14:00,56.3,49.5,29.75,SSE,165,5.0,9.0,78,0.00,,,0.00,0,WeatherCatV1.21B27,2013-09-22 12:14:00,
2013-09-22 07:16:00,56.3,49.5,29.75,SSE,167,1.0,5.0,78,0.00,,,0.00,0,WeatherCatV1.21B27,2013-09-22 12:16:00,
2013-09-22 07:17:00,56.2,49.4,29.75,South,191,3.0,10.0,78,0.00,,,0.00,0,WeatherCatV1.21B27,2013-09-22 12:17:00,
2013-09-22 07:18:00,56.2,49.4,29.75,South,191,1.0,10.0,78,0.00,,,0.00,5,WeatherCatV1.21B27,2013-09-22 12:18:00,
2013-09-22 07:19:00,56.1,49.7,29.75,South,174,1.0,5.0,79,0.00,,,0.00,5,WeatherCatV1.21B27,2013-09-22 12:19:00,
2013-09-22 07:21:00,56.0,49.6,29.75,South,174,3.0,5.0,79,0.00,,,0.00,5,WeatherCatV1.21B27,2013-09-22 12:21:00,
2013-09-22 07:22:00,56.0,49.6,29.75,South,174,2.0,5.0,79,0.00,,,0.00,5,WeatherCatV1.21B27,2013-09-22 12:22:00,
2013-09-22 07:23:00,55.9,49.5,29.75,South,190,5.0,5.0,79,0.00,,,0.00,7,WeatherCatV1.21B27,2013-09-22 12:23:00,
2013-09-22 07:24:00,55.8,49.4,29.75,SSW,197,5.0,6.0,79,0.00,,,0.00,7,WeatherCatV1.21B27,2013-09-22 12:24:00,
2013-09-22 07:26:00,55.6,49.5,29.75,South,174,5.0,6.0,80,0.00,,,0.00,9,WeatherCatV1.21B27,2013-09-22 12:26:00,
2013-09-22 07:27:00,55.6,49.5,29.75,South,172,1.0,5.0,80,0.00,,,0.00,9,WeatherCatV1.21B27,2013-09-22 12:27:00,
2013-09-22 07:29:00,55.5,49.4,29.75,SSE,152,2.0,7.0,80,0.00,,,0.00,11,WeatherCatV1.21B27,2013-09-22 12:29:00,
2013-09-22 07:31:00,55.3,49.2,29.75,SSE,149,2.0,5.0,80,0.00,,,0.00,11,WeatherCatV1.21B27,2013-09-22 12:31:00,
2013-09-22 07:32:00,55.3,49.2,29.75,SSE,154,4.0,5.0,80,0.00,,,0.00,12,WeatherCatV1.21B27,2013-09-22 12:32:00,
2013-09-22 07:33:00,55.2,49.1,29.75,SSE,154,1.0,5.0,80,0.00,,,0.00,12,WeatherCatV1.21B27,2013-09-22 12:33:00,
2013-09-22 07:34:00,55.2,49.1,29.75,SE,142,0.0,9.0,80,0.00,,,0.00,12,WeatherCatV1.21B27,2013-09-22 12:34:00,
2013-09-22 07:35:00,55.1,49.4,29.75,SE,144,2.0,9.0,81,0.00,,,0.00,12,WeatherCatV1.21B27,2013-09-22 12:35:00,
2013-09-22 07:36:00,55.1,49.4,29.75,SE,138,0.0,7.0,81,0.00,,,0.00,14,WeatherCatV1.21B27,2013-09-22 12:36:00,
2013-09-22 07:37:00,55.1,49.4,29.75,South,175,7.0,7.0,81,0.00,,,0.00,14,WeatherCatV1.21B27,2013-09-22 12:37:00,
2013-09-22 07:38:00,55.1,49.4,29.75,South,173,4.0,7.0,81,0.00,,,0.00,14,WeatherCatV1.21B27,2013-09-22 12:38:00,
2013-09-22 07:39:00,55.0,49.3,29.75,SSE,151,1.0,4.0,81,0.00,,,0.00,16,WeatherCatV1.21B27,2013-09-22 12:39:00,
2013-09-22 07:40:00,55.0,49.3,29.75,SSE,150,1.0,3.0,81,0.00,,,0.00,16,WeatherCatV1.21B27,2013-09-22 12:40:00,
2013-09-22 07:41:00,55.0,49.3,29.75,SSE,150,6.0,6.0,81,0.00,,,0.00,18,WeatherCatV1.21B27,2013-09-22 12:41:00,
2013-09-22 07:42:00,55.0,49.3,29.75,SSE,157,3.0,6.0,81,0.00,,,0.00,18,WeatherCatV1.21B27,2013-09-22 12:42:00,
2013-09-22 07:43:00,54.9,49.2,29.75,SSE,157,0.0,6.0,81,0.00,,,0.00,18,WeatherCatV1.21B27,2013-09-22 12:43:00,
2013-09-22 07:45:00,54.9,49.2,29.75,SSE,150,2.0,8.0,81,0.00,,,0.00,18,WeatherCatV1.21B27,2013-09-22 12:45:00,
2013-09-22 07:47:00,54.9,49.2,29.75,SSE,165,4.0,6.0,81,0.00,,,0.00,19,WeatherCatV1.21B27,2013-09-22 12:47:00,
2013-09-22 07:48:00,54.9,49.2,29.75,South,183,1.0,10.0,81,0.00,,,0.00,21,WeatherCatV1.21B27,2013-09-22 12:48:00,
2013-09-22 07:50:00,55.0,49.3,29.75,SSE,148,2.0,8.0,81,0.00,,,0.00,25,WeatherCatV1.21B27,2013-09-22 12:50:00,
2013-09-22 07:51:00,55.0,49.3,29.75,SSE,150,9.0,11.0,81,0.00,,,0.00,25,WeatherCatV1.21B27,2013-09-22 12:51:00,
2013-09-22 07:52:00,55.1,49.4,29.75,SSE,154,2.0,11.0,81,0.00,,,0.00,26,WeatherCatV1.21B27,2013-09-22 12:52:00,
2013-09-22 07:53:00,55.1,49.4,29.75,SSW,200,7.0,11.0,81,0.00,,,0.00,30,WeatherCatV1.21B27,2013-09-22 12:53:00,
2013-09-22 07:55:00,55.3,49.6,29.75,South,186,2.0,8.0,81,0.00,,,0.00,46,WeatherCatV1.21B27,2013-09-22 12:55:00,
2013-09-22 07:56:00,55.4,49.7,29.75,South,178,6.0,8.0,81,0.00,,,0.00,46,WeatherCatV1.21B27,2013-09-22 12:56:00,
2013-09-22 07:57:00,55.5,49.8,29.75,South,180,2.0,7.0,81,0.00,,,0.00,49,WeatherCatV1.21B27,2013-09-22 12:57:00,
2013-09-22 07:58:00,55.5,49.8,29.75,SSE,162,1.0,7.0,81,0.00,,,0.00,51,WeatherCatV1.21B27,2013-09-22 12:58:00,
2013-09-22 08:00:00,55.8,49.7,29.75,SSE,156,1.0,8.0,80,0.00,,,0.00,60,WeatherCatV1.21B27,2013-09-22 13:00:00,
2013-09-22 08:02:00,55.9,49.8,29.75,SSE,157,4.0,4.0,80,0.00,,,0.00,62,WeatherCatV1.21B27,2013-09-22 13:02:00,
2013-09-22 08:04:00,56.0,49.9,29.75,South,188,0.0,7.0,80,0.00,,,0.00,67,WeatherCatV1.21B27,2013-09-22 13:04:00,
2013-09-22 08:06:00,56.2,50.1,29.75,South,179,3.0,10.0,80,0.00,,,0.00,76,WeatherCatV1.21B27,2013-09-22 13:06:00,
2013-09-22 08:07:00,56.3,49.9,29.75,South,184,4.0,10.0,79,0.00,,,0.00,79,WeatherCatV1.21B27,2013-09-22 13:07:00,
2013-09-22 08:08:00,56.4,50.3,29.75,SSW,200,7.0,9.0,80,0.00,,,0.00,81,WeatherCatV1.21B27,2013-09-22 13:08:00,
2013-09-22 08:09:00,56.4,50.0,29.75,SSW,210,3.0,9.0,79,0.00,,,0.00,84,WeatherCatV1.21B27,2013-09-22 13:09:00,
2013-09-22 08:11:00,56.6,50.2,29.75,SE,144,4.0,12.0,79,0.00,,,0.00,90,WeatherCatV1.21B27,2013-09-22 13:11:00,
2013-09-22 08:12:00,56.7,50.3,29.75,SE,133,1.0,10.0,79,0.00,,,0.00,93,WeatherCatV1.21B27,2013-09-22 13:12:00,
2013-09-22 08:13:00,56.8,50.4,29.75,SSE,164,4.0,9.0,79,0.00,,,0.00,97,WeatherCatV1.21B27,2013-09-22 13:13:00,
2013-09-22 08:14:00,56.8,50.4,29.75,SSE,164,4.0,5.0,79,0.00,,,0.00,100,WeatherCatV1.21B27,2013-09-22 13:14:00,
2013-09-22 08:16:00,57.0,50.2,29.75,SSE,164,1.0,7.0,78,0.00,,,0.00,111,WeatherCatV1.21B27,2013-09-22 13:16:00,
2013-09-22 08:17:00,57.1,50.3,29.75,SSE,165,1.0,9.0,78,0.00,,,0.00,113,WeatherCatV1.21B27,2013-09-22 13:17:00,
2013-09-22 08:18:00,57.1,50.3,29.75,SSE,167,5.0,9.0,78,0.00,,,0.00,118,WeatherCatV1.21B27,2013-09-22 13:18:00,
2013-09-22 08:19:00,57.2,50.4,29.75,South,191,6.0,10.0,78,0.00,,,0.00,118,WeatherCatV1.21B27,2013-09-22 13:19:00,
2013-09-22 08:21:00,57.3,50.5,29.75,South,182,10.0,12.0,78,0.00,,,0.00,127,WeatherCatV1.21B27,2013-09-22 13:21:00,
2013-09-22 08:22:00,57.4,50.2,29.75,SSW,200,6.0,12.0,77,0.00,,,0.00,130,WeatherCatV1.21B27,2013-09-22 13:22:00,
2013-09-22 08:23:00,57.4,50.2,29.75,SSW,202,3.0,14.0,77,0.00,,,0.00,135,WeatherCatV1.21B27,2013-09-22 13:23:00,
2013-09-22 08:24:00,57.4,50.2,29.75,South,187,5.0,14.0,77,0.00,,,0.00,139,WeatherCatV1.21B27,2013-09-22 13:24:00,
2013-09-22 08:26:00,57.7,50.5,29.75,SSW,196,6.0,13.0,77,0.00,,,0.00,148,WeatherCatV1.21B27,2013-09-22 13:26:00,
2013-09-22 08:27:00,57.7,50.5,29.75,SSW,203,4.0,13.0,77,0.00,,,0.00,153,WeatherCatV1.21B27,2013-09-22 13:27:00,
2013-09-22 08:28:00,57.8,50.6,29.75,SSW,202,4.0,13.0,77,0.00,,,0.00,156,WeatherCatV1.21B27,2013-09-22 13:28:00,
2013-09-22 08:29:00,57.8,50.6,29.75,SE,142,5.0,7.0,77,0.00,,,0.00,156,WeatherCatV1.21B27,2013-09-22 13:29:00,
2013-09-22 08:30:00,57.8,50.6,29.75,South,175,4.0,6.0,77,0.00,,,0.00,160,WeatherCatV1.21B27,2013-09-22 13:30:00,
2013-09-22 08:31:00,58.0,50.5,29.75,South,180,3.0,7.0,76,0.00,,,0.00,167,WeatherCatV1.21B27,2013-09-22 13:31:00,
2013-09-22 08:32:00,58.0,50.5,29.75,SSW,205,11.0,13.0,76,0.00,,,0.00,171,WeatherCatV1.21B27,2013-09-22 13:32:00,
2013-09-22 08:34:00,58.1,50.6,29.75,SSW,192,8.0,16.0,76,0.00,,,0.00,174,WeatherCatV1.21B27,2013-09-22 13:34:00,
2013-09-22 08:35:00,58.2,50.7,29.75,South,175,4.0,7.0,76,0.00,,,0.00,181,WeatherCatV1.21B27,2013-09-22 13:35:00,
2013-09-22 08:37:00,58.4,50.9,29.75,South,190,7.0,9.0,76,0.00,,,0.00,186,WeatherCatV1.21B27,2013-09-22 13:37:00,
2013-09-22 08:39:00,58.5,51.0,29.75,South,183,6.0,11.0,76,0.00,,,0.00,193,WeatherCatV1.21B27,2013-09-22 13:39:00,
2013-09-22 08:40:00,58.7,50.8,29.74,SSE,168,0.0,12.0,75,0.00,,,0.00,202,WeatherCatV1.21B27,2013-09-22 13:40:00,
2013-09-22 08:42:00,58.9,51.0,29.74,SE,133,6.0,12.0,75,0.00,,,0.00,204,WeatherCatV1.21B27,2013-09-22 13:42:00,
2013-09-22 08:43:00,59.0,51.1,29.74,South,179,7.0,12.0,75,0.00,,,0.00,207,WeatherCatV1.21B27,2013-09-22 13:43:00,
2013-09-22 08:44:00,59.0,51.1,29.75,SSE,168,2.0,9.0,75,0.00,,,0.00,211,WeatherCatV1.21B27,2013-09-22 13:44:00,
2013-09-22 08:45:00,59.0,51.1,29.75,SSE,167,4.0,4.0,75,0.00,,,0.00,216,WeatherCatV1.21B27,2013-09-22 13:45:00,
2013-09-22 08:47:00,59.1,51.2,29.75,SSE,157,5.0,7.0,75,0.00,,,0.00,223,WeatherCatV1.21B27,2013-09-22 13:47:00,
2013-09-22 08:48:00,59.2,51.3,29.75,SSE,151,6.0,13.0,75,0.00,,,0.00,227,WeatherCatV1.21B27,2013-09-22 13:48:00,
2013-09-22 08:49:00,59.4,51.1,29.75,SSE,166,2.0,13.0,74,0.00,,,0.00,230,WeatherCatV1.21B27,2013-09-22 13:49:00,
2013-09-22 08:51:00,59.6,51.3,29.75,SSW,195,3.0,7.0,74,0.00,,,0.00,237,WeatherCatV1.21B27,2013-09-22 13:51:00,
2013-09-22 08:52:00,59.8,51.5,29.75,South,176,2.0,7.0,74,0.00,,,0.00,237,WeatherCatV1.21B27,2013-09-22 13:52:00,
2013-09-22 08:53:00,59.9,51.6,29.75,SE,145,5.0,7.0,74,0.00,,,0.00,243,WeatherCatV1.21B27,2013-09-22 13:53:00,
2013-09-22 08:54:00,60.0,51.3,29.74,SSE,164,4.0,13.0,73,0.00,,,0.00,244,WeatherCatV1.21B27,2013-09-22 13:54:00,
2013-09-22 08:56:00,60.3,51.6,29.75,South,175,8.0,11.0,73,0.00,,,0.00,251,WeatherCatV1.21B27,2013-09-22 13:56:00,
2013-09-22 08:58:00,60.5,51.8,29.75,SE,132,2.0,10.0,73,0.00,,,0.00,257,WeatherCatV1.21B27,2013-09-22 13:58:00,
2013-09-22 08:59:00,60.7,51.6,29.74,SSW,194,2.0,15.0,72,0.00,,,0.00,264,WeatherCatV1.21B27,2013-09-22 13:59:00,
2013-09-22 09:00:00,60.8,51.7,29.75,SSE,161,3.0,15.0,72,0.00,,,0.00,267,WeatherCatV1.21B27,2013-09-22 14:00:00,
2013-09-22 09:01:00,60.9,51.8,29.75,SSE,161,1.0,5.0,72,0.00,,,0.00,267,WeatherCatV1.21B27,2013-09-22 14:01:00,
2013-09-22 09:03:00,61.2,51.7,29.75,SSW,198,8.0,13.0,71,0.00,,,0.00,274,WeatherCatV1.21B27,2013-09-22 14:03:00,
2013-09-22 09:04:00,61.3,51.8,29.75,South,178,4.0,13.0,71,0.00,,,0.00,278,WeatherCatV1.21B27,2013-09-22 14:04:00,
2013-09-22 09:05:00,61.6,52.1,29.75,SSE,167,10.0,14.0,71,0.00,,,0.00,285,WeatherCatV1.21B27,2013-09-22 14:05:00,
2013-09-22 09:06:00,61.6,52.1,29.75,South,189,12.0,14.0,71,0.00,,,0.00,288,WeatherCatV1.21B27,2013-09-22 14:06:00,
2013-09-22 09:08:00,62.0,52.5,29.75,South,191,4.0,12.0,71,0.00,,,0.00,299,WeatherCatV1.21B27,2013-09-22 14:08:00,
2013-09-22 09:09:00,62.1,52.6,29.75,SSW,196,11.0,12.0,71,0.00,,,0.00,299,WeatherCatV1.21B27,2013-09-22 14:09:00,
2013-09-22 09:10:00,62.2,52.3,29.75,SW,229,12.0,15.0,70,0.00,,,0.00,301,WeatherCatV1.21B27,2013-09-22 14:10:00,
2013-09-22 09:11:00,62.4,52.5,29.75,South,178,12.0,18.0,70,0.00,,,0.00,304,WeatherCatV1.21B27,2013-09-22 14:11:00,
2013-09-22 09:14:00,62.8,52.5,29.75,SE,133,6.0,11.0,69,0.00,,,0.00,313,WeatherCatV1.21B27,2013-09-22 14:14:00,
2013-09-22 09:15:00,63.0,52.3,29.75,SW,214,8.0,11.0,68,0.00,,,0.00,315,WeatherCatV1.21B27,2013-09-22 14:15:00,
2013-09-22 09:16:00,63.2,52.5,29.75,South,184,5.0,15.0,68,0.00,,,0.00,320,WeatherCatV1.21B27,2013-09-22 14:16:00,
2013-09-22 09:19:00,63.6,52.0,29.75,SW,229,11.0,24.0,66,0.00,,,0.00,329,WeatherCatV1.21B27,2013-09-22 14:19:00,
2013-09-22 09:20:00,63.7,52.1,29.75,SSW,195,10.0,13.0,66,0.00,,,0.00,334,WeatherCatV1.21B27,2013-09-22 14:20:00,
2013-09-22 09:21:00,63.8,52.2,29.75,SW,214,13.0,17.0,66,0.00,,,0.00,336,WeatherCatV1.21B27,2013-09-22 14:21:00,
2013-09-22 09:24:00,64.1,52.1,29.75,South,170,3.0,22.0,65,0.00,,,0.00,345,WeatherCatV1.21B27,2013-09-22 14:24:00,
2013-09-22 09:25:00,64.3,52.3,29.75,South,179,10.0,16.0,65,0.00,,,0.00,348,WeatherCatV1.21B27,2013-09-22 14:25:00,
2013-09-22 09:26:00,64.4,52.4,29.75,SSE,148,4.0,16.0,65,0.00,,,0.00,352,WeatherCatV1.21B27,2013-09-22 14:26:00,
2013-09-22 09:27:00,64.6,52.6,29.75,South,186,2.0,9.0,65,0.00,,,0.00,357,WeatherCatV1.21B27,2013-09-22 14:27:00,
2013-09-22 09:29:00,64.8,52.8,29.75,SSW,200,12.0,12.0,65,0.00,,,0.00,360,WeatherCatV1.21B27,2013-09-22 14:29:00,
2013-09-22 09:30:00,64.9,52.4,29.75,South,174,4.0,13.0,64,0.00,,,0.00,364,WeatherCatV1.21B27,2013-09-22 14:30:00,
2013-09-22 09:31:00,65.0,52.1,29.75,South,180,3.0,13.0,63,0.00,,,0.00,367,WeatherCatV1.21B27,2013-09-22 14:31:00,
2013-09-22 09:33:00,65.2,52.7,29.75,SSE,163,3.0,12.0,64,0.00,,,0.00,374,WeatherCatV1.21B27,2013-09-22 14:33:00,
2013-09-22 09:34:00,65.3,52.8,29.75,SE,142,2.0,11.0,64,0.00,,,0.00,378,WeatherCatV1.21B27,2013-09-22 14:34:00,
2013-09-22 09:35:00,65.4,52.9,29.75,SSE,165,6.0,11.0,64,0.00,,,0.00,380,WeatherCatV1.21B27,2013-09-22 14:35:00,
2013-09-22 09:36:00,65.6,52.2,29.75,SSW,210,9.0,19.0,62,0.00,,,0.00,383,WeatherCatV1.21B27,2013-09-22 14:36:00,
2013-09-22 09:38:00,65.7,52.8,29.75,SE,144,4.0,19.0,63,0.00,,,0.00,390,WeatherCatV1.21B27,2013-09-22 14:38:00,
2013-09-22 09:39:00,65.8,52.8,29.75,SE,140,11.0,15.0,63,0.00,,,0.00,392,WeatherCatV1.21B27,2013-09-22 14:39:00,
2013-09-22 09:40:00,65.9,52.5,29.75,SSW,198,15.0,15.0,62,0.00,,,0.00,397,WeatherCatV1.21B27,2013-09-22 14:40:00,
2013-09-22 09:41:00,66.0,52.6,29.75,SSW,207,4.0,16.0,62,0.00,,,0.00,401,WeatherCatV1.21B27,2013-09-22 14:41:00,
2013-09-22 09:43:00,66.1,52.7,29.75,South,176,5.0,14.0,62,0.00,,,0.00,408,WeatherCatV1.21B27,2013-09-22 14:43:00,
2013-09-22 09:44:00,66.2,52.8,29.75,SSW,203,15.0,15.0,62,0.00,,,0.00,410,WeatherCatV1.21B27,2013-09-22 14:44:00,
2013-09-22 09:45:00,66.3,52.9,29.75,South,188,11.0,15.0,62,0.00,,,0.00,413,WeatherCatV1.21B27,2013-09-22 14:45:00,
2013-09-22 09:46:00,66.3,52.4,29.75,SSW,207,5.0,14.0,61,0.00,,,0.00,417,WeatherCatV1.21B27,2013-09-22 14:46:00,
2013-09-22 09:48:00,66.5,52.6,29.75,South,180,6.0,9.0,61,0.00,,,0.00,422,WeatherCatV1.21B27,2013-09-22 14:48:00,
2013-09-22 09:49:00,66.6,53.2,29.75,SSW,195,2.0,9.0,62,0.00,,,0.00,425,WeatherCatV1.21B27,2013-09-22 14:49:00,
2013-09-22 09:50:00,66.6,53.2,29.75,SSW,192,5.0,6.0,62,0.00,,,0.00,425,WeatherCatV1.21B27,2013-09-22 14:50:00,
2013-09-22 09:51:00,66.9,53.0,29.75,SSW,203,6.0,9.0,61,0.00,,,0.00,431,WeatherCatV1.21B27,2013-09-22 14:51:00,
2013-09-22 09:53:00,67.0,53.1,29.75,SSE,163,9.0,20.0,61,0.00,,,0.00,439,WeatherCatV1.21B27,2013-09-22 14:53:00,
2013-09-22 09:54:00,67.0,52.7,29.75,SSW,211,7.0,17.0,60,0.00,,,0.00,443,WeatherCatV1.21B27,2013-09-22 14:54:00,
2013-09-22 09:55:00,67.0,52.7,29.75,SSE,163,3.0,15.0,60,0.00,,,0.00,443,WeatherCatV1.21B27,2013-09-22 14:55:00,
2013-09-22 09:56:00,67.0,52.7,29.75,South,175,6.0,15.0,60,0.00,,,0.00,445,WeatherCatV1.21B27,2013-09-22 14:56:00,
2013-09-22 09:59:00,67.2,52.8,29.75,SSW,211,2.0,11.0,60,0.00,,,0.00,454,WeatherCatV1.21B27,2013-09-22 14:59:00,
2013-09-22 10:00:00,67.4,53.0,29.75,SSE,164,4.0,13.0,60,0.00,,,0.00,455,WeatherCatV1.21B27,2013-09-22 15:00:00,
2013-09-22 10:01:00,67.5,53.1,29.75,SSW,205,5.0,13.0,60,0.00,,,0.00,459,WeatherCatV1.21B27,2013-09-22 15:01:00,
2013-09-22 10:02:00,67.6,53.2,29.75,South,176,7.0,10.0,60,0.00,,,0.00,462,WeatherCatV1.21B27,2013-09-22 15:02:00,
2013-09-22 10:04:00,67.7,52.8,29.75,SSE,155,8.0,18.0,59,0.00,,,0.00,469,WeatherCatV1.21B27,2013-09-22 15:04:00,
2013-09-22 10:05:00,67.7,53.3,29.75,South,188,16.0,16.0,60,0.00,,,0.00,469,WeatherCatV1.21B27,2013-09-22 15:05:00,
2013-09-22 10:06:00,67.7,52.4,29.75,SW,217,12.0,18.0,58,0.00,,,0.00,475,WeatherCatV1.21B27,2013-09-22 15:06:00,
2013-09-22 10:07:00,67.8,52.9,29.75,SSW,199,16.0,16.0,59,0.00,,,0.00,475,WeatherCatV1.21B27,2013-09-22 15:07:00,
2013-09-22 10:09:00,67.9,53.0,29.75,SSW,199,6.0,16.0,59,0.00,,,0.00,483,WeatherCatV1.21B27,2013-09-22 15:09:00,
2013-09-22 10:10:00,68.0,53.1,29.75,SSE,158,12.0,12.0,59,0.00,,,0.00,485,WeatherCatV1.21B27,2013-09-22 15:10:00,
2013-09-22 10:11:00,68.1,53.2,29.75,SSW,202,15.0,15.0,59,0.00,,,0.00,490,WeatherCatV1.21B27,2013-09-22 15:11:00,
2013-09-22 10:12:00,68.2,53.3,29.75,South,169,4.0,15.0,59,0.00,,,0.00,492,WeatherCatV1.21B27,2013-09-22 15:12:00,
2013-09-22 10:14:00,68.2,52.4,29.75,SW,215,5.0,18.0,57,0.00,,,0.00,497,WeatherCatV1.21B27,2013-09-22 15:14:00,
2013-09-22 10:15:00,68.2,52.4,29.75,SSW,205,8.0,18.0,57,0.00,,,0.00,499,WeatherCatV1.21B27,2013-09-22 15:15:00,
2013-09-22 10:16:00,68.1,52.8,29.75,SW,225,11.0,14.0,58,0.00,,,0.00,504,WeatherCatV1.21B27,2013-09-22 15:16:00,
2013-09-22 10:18:00,68.2,52.8,29.75,South,190,10.0,21.0,58,0.00,,,0.00,508,WeatherCatV1.21B27,2013-09-22 15:18:00,
2013-09-22 10:19:00,68.2,52.4,29.74,South,183,3.0,15.0,57,0.00,,,0.00,513,WeatherCatV1.21B27,2013-09-22 15:19:00,
2013-09-22 10:20:00,68.3,52.5,29.75,South,176,3.0,15.0,57,0.00,,,0.00,515,WeatherCatV1.21B27,2013-09-22 15:20:00,
2013-09-22 10:21:00,68.5,52.7,29.74,South,182,10.0,13.0,57,0.00,,,0.00,519,WeatherCatV1.21B27,2013-09-22 15:21:00,
2013-09-22 10:23:00,68.7,53.3,29.75,SSW,200,19.0,19.0,58,0.00,,,0.00,522,WeatherCatV1.21B27,2013-09-22 15:23:00,
2013-09-22 10:25:00,68.8,52.9,29.75,SSW,198,10.0,20.0,57,0.00,,,0.00,529,WeatherCatV1.21B27,2013-09-22 15:25:00,
2013-09-22 10:26:00,68.9,53.0,29.75,South,172,9.0,17.0,57,0.00,,,0.00,534,WeatherCatV1.21B27,2013-09-22 15:26:00,
2013-09-22 10:28:00,69.0,52.6,29.75,SSW,202,7.0,16.0,56,0.00,,,0.00,540,WeatherCatV1.21B27,2013-09-22 15:28:00,
2013-09-22 10:30:00,69.0,52.6,29.74,ESE,119,4.0,20.0,56,0.00,,,0.00,541,WeatherCatV1.21B27,2013-09-22 15:30:00,
2013-09-22 10:32:00,69.2,53.3,29.74,SW,225,9.0,9.0,57,0.00,,,0.00,547,WeatherCatV1.21B27,2013-09-22 15:32:00,
2013-09-22 10:33:00,69.4,53.0,29.75,SSW,203,5.0,13.0,56,0.00,,,0.00,552,WeatherCatV1.21B27,2013-09-22 15:33:00,
2013-09-22 10:35:00,69.5,53.6,29.74,SW,214,7.0,14.0,57,0.00,,,0.00,557,WeatherCatV1.21B27,2013-09-22 15:35:00,
2013-09-22 10:36:00,69.6,53.2,29.74,SSW,205,10.0,19.0,56,0.00,,,0.00,559,WeatherCatV1.21B27,2013-09-22 15:36:00,
2013-09-22 10:37:00,69.7,53.3,29.74,SSW,213,4.0,19.0,56,0.00,,,0.00,561,WeatherCatV1.21B27,2013-09-22 15:37:00,
2013-09-22 10:38:00,69.8,52.9,29.74,SSW,205,5.0,14.0,55,0.00,,,0.00,563,WeatherCatV1.21B27,2013-09-22 15:38:00,
2013-09-22 10:40:00,69.9,53.0,29.74,South,177,5.0,14.0,55,0.00,,,0.00,570,WeatherCatV1.21B27,2013-09-22 15:40:00,
2013-09-22 10:41:00,70.0,53.1,29.74,SSE,167,5.0,12.0,55,0.00,,,0.00,573,WeatherCatV1.21B27,2013-09-22 15:41:00,
2013-09-22 10:42:00,70.1,53.2,29.74,SSE,161,13.0,13.0,55,0.00,,,0.00,573,WeatherCatV1.21B27,2013-09-22 15:42:00,
2013-09-22 10:44:00,70.1,53.2,29.74,South,179,5.0,21.0,55,0.00,,,0.00,578,WeatherCatV1.21B27,2013-09-22 15:44:00,
2013-09-22 10:45:00,70.2,53.3,29.74,SSW,195,7.0,16.0,55,0.00,,,0.00,584,WeatherCatV1.21B27,2013-09-22 15:45:00,
2013-09-22 10:46:00,70.3,53.4,29.74,SSW,213,10.0,16.0,55,0.00,,,0.00,585,WeatherCatV1.21B27,2013-09-22 15:46:00,
2013-09-22 10:47:00,70.3,53.4,29.74,SSW,194,13.0,16.0,55,0.00,,,0.00,585,WeatherCatV1.21B27,2013-09-22 15:47:00,
2013-09-22 10:49:00,70.4,53.0,29.74,SSE,160,11.0,26.0,54,0.00,,,0.00,591,WeatherCatV1.21B27,2013-09-22 15:49:00,
2013-09-22 10:50:00,70.4,52.4,29.74,SSE,165,12.0,15.0,53,0.00,,,0.00,594,WeatherCatV1.21B27,2013-09-22 15:50:00,
2013-09-22 10:52:00,70.5,52.5,29.74,South,188,10.0,16.0,53,0.00,,,0.00,599,WeatherCatV1.21B27,2013-09-22 15:52:00,
2013-09-22 10:54:00,70.7,52.7,29.74,SE,145,10.0,17.0,53,0.00,,,0.00,603,WeatherCatV1.21B27,2013-09-22 15:54:00,
2013-09-22 10:55:00,70.8,53.3,29.74,SSE,165,6.0,11.0,54,0.00,,,0.00,610,WeatherCatV1.21B27,2013-09-22 15:55:00,
2013-09-22 10:57:00,71.0,53.5,29.74,South,188,8.0,21.0,54,0.00,,,0.00,610,WeatherCatV1.21B27,2013-09-22 15:57:00,
2013-09-22 11:00:00,71.1,53.1,29.74,South,186,13.0,17.0,53,0.00,,,0.00,619,WeatherCatV1.21B27,2013-09-22 16:00:00,
2013-09-22 11:02:00,71.1,52.6,29.73,ESE,113,3.0,19.0,52,0.00,,,0.00,622,WeatherCatV1.21B27,2013-09-22 16:02:00,
2013-09-22 11:05:00,71.4,52.8,29.73,SSW,213,12.0,17.0,52,0.00,,,0.00,629,WeatherCatV1.21B27,2013-09-22 16:05:00,
2013-09-22 11:07:00,71.4,52.8,29.74,SW,214,5.0,20.0,52,0.00,,,0.00,635,WeatherCatV1.21B27,2013-09-22 16:07:00,
2013-09-22 11:10:00,71.3,52.2,29.74,South,178,9.0,20.0,51,0.00,,,0.00,642,WeatherCatV1.21B27,2013-09-22 16:10:00,
2013-09-22 11:11:00,71.3,52.2,29.74,SSW,201,6.0,20.0,51,0.00,,,0.00,642,WeatherCatV1.21B27,2013-09-22 16:11:00,
2013-09-22 11:12:00,71.5,53.5,29.74,WSW,250,6.0,15.0,53,0.00,,,0.00,645,WeatherCatV1.21B27,2013-09-22 16:12:00,
2013-09-22 11:16:00,71.7,53.1,29.73,ESE,111,10.0,16.0,52,0.00,,,0.00,652,WeatherCatV1.21B27,2013-09-22 16:16:00,
2013-09-22 11:17:00,71.9,53.8,29.74,SSW,201,12.0,18.0,53,0.00,,,0.00,656,WeatherCatV1.21B27,2013-09-22 16:17:00,
2013-09-22 11:21:00,72.2,53.0,29.73,SSW,202,7.0,16.0,51,0.00,,,0.00,663,WeatherCatV1.21B27,2013-09-22 16:21:00,
2013-09-22 11:22:00,72.2,54.1,29.73,SSE,163,8.0,11.0,53,0.00,,,0.00,666,WeatherCatV1.21B27,2013-09-22 16:22:00,
2013-09-22 11:23:00,72.3,54.2,29.73,SW,226,12.0,16.0,53,0.00,,,0.00,668,WeatherCatV1.21B27,2013-09-22 16:23:00,
2013-09-22 11:26:00,72.1,53.0,29.73,SSE,149,6.0,22.0,51,0.00,,,0.00,673,WeatherCatV1.21B27,2013-09-22 16:26:00,
2013-09-22 11:28:00,72.2,53.0,29.73,ESE,119,3.0,14.0,51,0.00,,,0.00,675,WeatherCatV1.21B27,2013-09-22 16:28:00,
2013-09-22 11:31:00,72.4,52.7,29.73,SSW,206,8.0,23.0,50,0.00,,,0.00,684,WeatherCatV1.21B27,2013-09-22 16:31:00,
2013-09-22 11:33:00,72.4,53.8,29.72,SE,136,6.0,11.0,52,0.00,,,0.00,686,WeatherCatV1.21B27,2013-09-22 16:33:00,
2013-09-22 11:36:00,72.4,53.8,29.72,South,169,5.0,22.0,52,0.00,,,0.00,691,WeatherCatV1.21B27,2013-09-22 16:36:00,
2013-09-22 11:38:00,72.6,54.0,29.72,South,182,8.0,15.0,52,0.00,,,0.00,694,WeatherCatV1.21B27,2013-09-22 16:38:00,
2013-09-22 11:41:00,72.8,53.6,29.73,SSE,155,7.0,18.0,51,0.00,,,0.00,701,WeatherCatV1.21B27,2013-09-22 16:41:00,
2013-09-22 11:43:00,72.9,53.7,29.72,SSE,153,4.0,18.0,51,0.00,,,0.00,703,WeatherCatV1.21B27,2013-09-22 16:43:00,
2013-09-22 11:44:00,73.1,53.9,29.73,South,175,9.0,15.0,51,0.00,,,0.00,705,WeatherCatV1.21B27,2013-09-22 16:44:00,
2013-09-22 11:46:00,73.0,53.2,29.73,SSW,194,13.0,21.0,50,0.00,,,0.00,708,WeatherCatV1.21B27,2013-09-22 16:46:00,
2013-09-22 11:48:00,72.8,53.6,29.72,South,183,7.0,21.0,51,0.00,,,0.00,712,WeatherCatV1.21B27,2013-09-22 16:48:00,
2013-09-22 11:49:00,72.8,53.6,29.72,South,173,6.0,18.0,51,0.00,,,0.00,712,WeatherCatV1.21B27,2013-09-22 16:49:00,
2013-09-22 11:51:00,72.9,53.7,29.72,SE,138,6.0,11.0,51,0.00,,,0.00,717,WeatherCatV1.21B27,2013-09-22 16:51:00,
2013-09-22 11:52:00,73.0,53.8,29.72,SE,137,4.0,11.0,51,0.00,,,0.00,717,WeatherCatV1.21B27,2013-09-22 16:52:00,
2013-09-22 11:53:00,73.1,53.9,29.72,South,191,15.0,22.0,51,0.00,,,0.00,719,WeatherCatV1.21B27,2013-09-22 16:53:00,
2013-09-22 11:55:00,73.0,53.8,29.72,South,175,12.0,20.0,51,0.00,,,0.00,724,WeatherCatV1.21B27,2013-09-22 16:55:00,
2013-09-22 11:57:00,73.0,53.2,29.72,SSW,201,9.0,17.0,50,0.00,,,0.00,724,WeatherCatV1.21B27,2013-09-22 16:57:00,
2013-09-22 11:59:00,73.2,54.0,29.72,South,188,3.0,18.0,51,0.00,,,0.00,728,WeatherCatV1.21B27,2013-09-22 16:59:00,
2013-09-22 12:00:00,73.4,54.7,29.72,SSW,199,10.0,17.0,52,0.00,,,0.00,728,WeatherCatV1.21B27,2013-09-22 17:00:00,
2013-09-22 12:02:00,73.7,54.4,29.72,SW,214,5.0,17.0,51,0.00,,,0.00,731,WeatherCatV1.21B27,2013-09-22 17:02:00,
2013-09-22 12:04:00,73.9,55.2,29.72,SE,139,9.0,15.0,52,0.00,,,0.00,735,WeatherCatV1.21B27,2013-09-22 17:04:00,
2013-09-22 12:05:00,74.1,55.3,29.72,SSW,209,9.0,21.0,52,0.00,,,0.00,737,WeatherCatV1.21B27,2013-09-22 17:05:00,
2013-09-22 12:07:00,74.1,54.2,29.72,SSE,157,17.0,28.0,50,0.00,,,0.00,740,WeatherCatV1.21B27,2013-09-22 17:07:00,
2013-09-22 12:09:00,73.9,53.5,29.72,SW,234,6.0,15.0,49,0.00,,,0.00,742,WeatherCatV1.21B27,2013-09-22 17:09:00,
2013-09-22 12:10:00,73.9,54.1,29.72,SE,142,4.0,19.0,50,0.00,,,0.00,742,WeatherCatV1.21B27,2013-09-22 17:10:00,
2013-09-22 12:12:00,73.9,54.1,29.72,South,190,13.0,19.0,50,0.00,,,0.00,745,WeatherCatV1.21B27,2013-09-22 17:12:00,
2013-09-22 12:14:00,74.1,54.2,29.72,South,172,13.0,22.0,50,0.00,,,0.00,751,WeatherCatV1.21B27,2013-09-22 17:14:00,
2013-09-22 12:15:00,74.0,53.6,29.72,SE,133,11.0,22.0,49,0.00,,,0.00,751,WeatherCatV1.21B27,2013-09-22 17:15:00,
2013-09-22 12:17:00,73.9,54.1,29.72,South,190,7.0,26.0,50,0.00,,,0.00,751,WeatherCatV1.21B27,2013-09-22 17:17:00,
2013-09-22 12:19:00,74.1,54.2,29.72,SW,229,16.0,16.0,50,0.00,,,0.00,752,WeatherCatV1.21B27,2013-09-22 17:19:00,
2013-09-22 12:20:00,74.1,54.2,29.71,SSW,202,19.0,19.0,50,0.00,,,0.00,754,WeatherCatV1.21B27,2013-09-22 17:20:00,
2013-09-22 12:22:00,74.3,53.9,29.72,SSW,192,7.0,19.0,49,0.00,,,0.00,756,WeatherCatV1.21B27,2013-09-22 17:22:00,
2013-09-22 12:24:00,74.5,54.6,29.72,SSW,205,6.0,16.0,50,0.00,,,0.00,756,WeatherCatV1.21B27,2013-09-22 17:24:00,
2013-09-22 12:25:00,74.6,54.2,29.72,SW,220,13.0,16.0,49,0.00,,,0.00,759,WeatherCatV1.21B27,2013-09-22 17:25:00,
2013-09-22 12:27:00,74.6,54.2,29.72,SSE,164,7.0,20.0,49,0.00,,,0.00,759,WeatherCatV1.21B27,2013-09-22 17:27:00,
2013-09-22 12:29:00,74.9,55.0,29.72,East,98,1.0,12.0,50,0.00,,,0.00,763,WeatherCatV1.21B27,2013-09-22 17:29:00,
2013-09-22 12:30:00,75.0,55.6,29.72,SE,145,5.0,20.0,51,0.00,,,0.00,763,WeatherCatV1.21B27,2013-09-22 17:30:00,
2013-09-22 12:32:00,75.2,55.3,29.71,South,175,10.0,20.0,50,0.00,,,0.00,763,WeatherCatV1.21B27,2013-09-22 17:32:00,
2013-09-22 12:34:00,75.1,54.0,29.72,South,184,17.0,21.0,48,0.00,,,0.00,766,WeatherCatV1.21B27,2013-09-22 17:34:00,
2013-09-22 12:35:00,75.0,54.0,29.72,SW,223,19.0,21.0,48,0.00,,,0.00,766,WeatherCatV1.21B27,2013-09-22 17:35:00,
2013-09-22 12:37:00,75.0,54.5,29.71,WSW,245,4.0,18.0,49,0.00,,,0.00,768,WeatherCatV1.21B27,2013-09-22 17:37:00,
2013-09-22 12:38:00,75.1,54.6,29.72,South,183,6.0,18.0,49,0.00,,,0.00,768,WeatherCatV1.21B27,2013-09-22 17:38:00,
2013-09-22 12:39:00,75.2,54.1,29.72,SW,219,9.0,15.0,48,0.00,,,0.00,770,WeatherCatV1.21B27,2013-09-22 17:39:00,
2013-09-22 12:40:00,75.2,54.1,29.72,South,180,6.0,24.0,48,0.00,,,0.00,770,WeatherCatV1.21B27,2013-09-22 17:40:00,
2013-09-22 12:42:00,75.2,54.7,29.72,South,191,7.0,15.0,49,0.00,,,0.00,773,WeatherCatV1.21B27,2013-09-22 17:42:00,
2013-09-22 12:43:00,75.3,54.8,29.71,SW,215,4.0,10.0,49,0.00,,,0.00,772,WeatherCatV1.21B27,2013-09-22 17:43:00,
2013-09-22 12:45:00,75.5,54.4,29.71,South,181,9.0,23.0,48,0.00,,,0.00,772,WeatherCatV1.21B27,2013-09-22 17:45:00,
2013-09-22 12:47:00,75.7,55.2,29.72,South,175,13.0,18.0,49,0.00,,,0.00,773,WeatherCatV1.21B27,2013-09-22 17:47:00,
2013-09-22 12:48:00,75.6,54.5,29.71,SSW,212,7.0,18.0,48,0.00,,,0.00,773,WeatherCatV1.21B27,2013-09-22 17:48:00,
2013-09-22 12:50:00,75.6,55.1,29.72,SSW,203,17.0,19.0,49,0.00,,,0.00,775,WeatherCatV1.21B27,2013-09-22 17:50:00,
2013-09-22 12:53:00,76.0,54.9,29.71,SSW,192,11.0,16.0,48,0.00,,,0.00,779,WeatherCatV1.21B27,2013-09-22 17:53:00,
2013-09-22 12:55:00,76.1,55.5,29.71,SSW,199,3.0,14.0,49,0.00,,,0.00,780,WeatherCatV1.21B27,2013-09-22 17:55:00,
2013-09-22 12:56:00,76.2,55.6,29.71,SSW,197,7.0,14.0,49,0.00,,,0.00,779,WeatherCatV1.21B27,2013-09-22 17:56:00,
2013-09-22 12:58:00,76.2,54.5,29.71,SSW,203,10.0,22.0,47,0.00,,,0.00,780,WeatherCatV1.21B27,2013-09-22 17:58:00,
2013-09-22 13:00:00,76.3,55.2,29.71,South,173,4.0,13.0,48,0.00,,,0.00,780,WeatherCatV1.21B27,2013-09-22 18:00:00,
2013-09-22 13:01:00,76.4,55.8,29.71,SE,144,6.0,7.0,49,0.00,,,0.00,780,WeatherCatV1.21B27,2013-09-22 18:01:00,
2013-09-22 13:03:00,76.8,55.6,29.71,SE,145,10.0,13.0,48,0.00,,,0.00,782,WeatherCatV1.21B27,2013-09-22 18:03:00,
2013-09-22 13:04:00,76.9,55.7,29.71,SE,130,11.0,13.0,48,0.00,,,0.00,782,WeatherCatV1.21B27,2013-09-22 18:04:00,
2013-09-22 13:05:00,76.9,55.1,29.71,SSE,159,3.0,18.0,47,0.00,,,0.00,784,WeatherCatV1.21B27,2013-09-22 18:05:00,
2013-09-22 13:06:00,77.0,55.2,29.72,South,188,1.0,19.0,47,0.00,,,0.00,786,WeatherCatV1.21B27,2013-09-22 18:06:00,
2013-09-22 13:08:00,77.1,56.5,29.71,SE,127,6.0,12.0,49,0.00,,,0.00,786,WeatherCatV1.21B27,2013-09-22 18:08:00,
2013-09-22 13:09:00,77.1,56.5,29.71,SW,221,3.0,17.0,49,0.00,,,0.00,788,WeatherCatV1.21B27,2013-09-22 18:09:00,
2013-09-22 13:10:00,77.3,55.5,29.71,SSE,153,17.0,17.0,47,0.00,,,0.00,788,WeatherCatV1.21B27,2013-09-22 18:10:00,
2013-09-22 13:11:00,77.3,56.1,29.71,SSW,195,6.0,13.0,48,0.00,,,0.00,788,WeatherCatV1.21B27,2013-09-22 18:11:00,
2013-09-22 13:13:00,77.3,56.1,29.71,SSW,203,18.0,18.0,48,0.00,,,0.00,788,WeatherCatV1.21B27,2013-09-22 18:13:00,
2013-09-22 13:14:00,77.3,55.5,29.71,SE,131,3.0,18.0,47,0.00,,,0.00,788,WeatherCatV1.21B27,2013-09-22 18:14:00,
2013-09-22 13:15:00,77.3,55.5,29.71,SSW,207,7.0,18.0,47,0.00,,,0.00,789,WeatherCatV1.21B27,2013-09-22 18:15:00,
2013-09-22 13:17:00,77.3,55.5,29.71,SSW,198,6.0,16.0,47,0.00,,,0.00,789,WeatherCatV1.21B27,2013-09-22 18:17:00,
2013-09-22 13:18:00,77.3,54.9,29.71,South,179,7.0,15.0,46,0.00,,,0.00,789,WeatherCatV1.21B27,2013-09-22 18:18:00,
2013-09-22 13:19:00,77.3,54.9,29.71,SW,229,15.0,18.0,46,0.00,,,0.00,789,WeatherCatV1.21B27,2013-09-22 18:19:00,
2013-09-22 13:20:00,77.2,54.8,29.71,SSE,155,2.0,18.0,46,0.00,,,0.00,789,WeatherCatV1.21B27,2013-09-22 18:20:00,
2013-09-22 13:22:00,77.2,55.4,29.70,South,183,15.0,15.0,47,0.00,,,0.00,789,WeatherCatV1.21B27,2013-09-22 18:22:00,
2013-09-22 13:23:00,77.3,55.5,29.71,South,176,5.0,17.0,47,0.00,,,0.00,791,WeatherCatV1.21B27,2013-09-22 18:23:00,
2013-09-22 13:25:00,77.4,55.0,29.70,SSE,150,14.0,15.0,46,0.00,,,0.00,791,WeatherCatV1.21B27,2013-09-22 18:25:00,
2013-09-22 13:27:00,77.3,54.3,29.70,South,190,6.0,19.0,45,0.00,,,0.00,789,WeatherCatV1.21B27,2013-09-22 18:27:00,
2013-09-22 13:28:00,77.3,55.5,29.70,SW,219,7.0,19.0,47,0.00,,,0.00,789,WeatherCatV1.21B27,2013-09-22 18:28:00,
2013-09-22 13:30:00,77.5,56.2,29.70,South,187,9.0,15.0,48,0.00,,,0.00,788,WeatherCatV1.21B27,2013-09-22 18:30:00,
2013-09-22 13:31:00,77.5,55.1,29.70,South,178,11.0,15.0,46,0.00,,,0.00,788,WeatherCatV1.21B27,2013-09-22 18:31:00,
2013-09-22 13:32:00,77.6,55.2,29.70,South,184,10.0,11.0,46,0.00,,,0.00,789,WeatherCatV1.21B27,2013-09-22 18:32:00,
2013-09-22 13:33:00,77.6,55.2,29.70,ESE,115,9.0,28.0,46,0.00,,,0.00,788,WeatherCatV1.21B27,2013-09-22 18:33:00,
2013-09-22 13:35:00,77.5,55.1,29.70,South,182,5.0,21.0,46,0.00,,,0.00,789,WeatherCatV1.21B27,2013-09-22 18:35:00,
2013-09-22 13:36:00,77.5,55.1,29.70,SE,144,10.0,13.0,46,0.00,,,0.00,788,WeatherCatV1.21B27,2013-09-22 18:36:00,
2013-09-22 13:37:00,77.7,55.8,29.70,SSW,210,5.0,15.0,47,0.00,,,0.00,788,WeatherCatV1.21B27,2013-09-22 18:37:00,
2013-09-22 13:38:00,77.8,55.3,29.70,SSW,205,7.0,15.0,46,0.00,,,0.00,786,WeatherCatV1.21B27,2013-09-22 18:38:00,
2013-09-22 13:41:00,78.0,55.5,29.70,South,188,14.0,16.0,46,0.00,,,0.00,788,WeatherCatV1.21B27,2013-09-22 18:41:00,
2013-09-22 13:43:00,77.9,54.8,29.70,South,184,6.0,16.0,45,0.00,,,0.00,788,WeatherCatV1.21B27,2013-09-22 18:43:00,
2013-09-22 13:46:00,77.9,54.8,29.69,SSW,198,3.0,18.0,45,0.00,,,0.00,786,WeatherCatV1.21B27,2013-09-22 18:46:00,
2013-09-22 13:48:00,78.0,54.9,29.69,SSE,155,6.0,13.0,45,0.00,,,0.00,784,WeatherCatV1.21B27,2013-09-22 18:48:00,
2013-09-22 13:51:00,78.0,54.3,29.69,South,178,10.0,25.0,44,0.00,,,0.00,784,WeatherCatV1.21B27,2013-09-22 18:51:00,
2013-09-22 13:53:00,78.1,55.0,29.69,South,172,22.0,22.0,45,0.00,,,0.00,780,WeatherCatV1.21B27,2013-09-22 18:53:00,
2013-09-22 13:56:00,78.5,55.4,29.69,SE,136,7.0,18.0,45,0.00,,,0.00,780,WeatherCatV1.21B27,2013-09-22 18:56:00,
2013-09-22 13:58:00,78.4,55.3,29.69,South,181,7.0,17.0,45,0.00,,,0.00,780,WeatherCatV1.21B27,2013-09-22 18:58:00,
2013-09-22 14:01:00,78.5,55.4,29.68,SSE,153,14.0,15.0,45,0.00,,,0.00,777,WeatherCatV1.21B27,2013-09-22 19:01:00,
2013-09-22 14:03:00,78.6,54.8,29.68,SE,126,6.0,15.0,44,0.00,,,0.00,775,WeatherCatV1.21B27,2013-09-22 19:03:00,
2013-09-22 14:04:00,78.6,54.8,29.68,SE,140,18.0,18.0,44,0.00,,,0.00,773,WeatherCatV1.21B27,2013-09-22 19:04:00,
2013-09-22 14:06:00,78.7,54.9,29.68,SSW,200,9.0,20.0,44,0.00,,,0.00,775,WeatherCatV1.21B27,2013-09-22 19:06:00,
2013-09-22 14:08:00,78.9,55.1,29.68,SSE,154,3.0,13.0,44,0.00,,,0.00,772,WeatherCatV1.21B27,2013-09-22 19:08:00,
2013-09-22 14:09:00,78.9,55.1,29.68,SSE,153,0.0,13.0,44,0.00,,,0.00,772,WeatherCatV1.21B27,2013-09-22 19:09:00,
2013-09-22 14:11:00,79.1,55.3,29.68,SSW,201,7.0,15.0,44,0.00,,,0.00,770,WeatherCatV1.21B27,2013-09-22 19:11:00,
2013-09-22 14:14:00,78.9,55.1,29.68,SE,145,10.0,25.0,44,0.00,,,0.00,770,WeatherCatV1.21B27,2013-09-22 19:14:00,
2013-09-22 14:16:00,78.7,54.9,29.68,SSE,150,6.0,22.0,44,0.00,,,0.00,765,WeatherCatV1.21B27,2013-09-22 19:16:00,
2013-09-22 14:19:00,78.9,55.7,29.68,SW,226,13.0,17.0,45,0.00,,,0.00,765,WeatherCatV1.21B27,2013-09-22 19:19:00,
2013-09-22 14:21:00,79.2,55.4,29.68,SSW,199,15.0,23.0,44,0.00,,,0.00,763,WeatherCatV1.21B27,2013-09-22 19:21:00,
2013-09-22 14:24:00,79.2,55.4,29.68,SSE,153,5.0,14.0,44,0.00,,,0.00,759,WeatherCatV1.21B27,2013-09-22 19:24:00,
2013-09-22 14:26:00,79.3,54.8,29.68,SSW,205,9.0,15.0,43,0.00,,,0.00,758,WeatherCatV1.21B27,2013-09-22 19:26:00,
2013-09-22 14:27:00,79.3,54.8,29.68,SSW,205,9.0,15.0,43,0.00,,,0.00,758,WeatherCatV1.21B27,2013-09-22 19:27:00,
2013-09-22 14:29:00,79.3,55.5,29.68,SE,140,6.0,16.0,44,0.00,,,0.00,756,WeatherCatV1.21B27,2013-09-22 19:29:00,
2013-09-22 14:32:00,79.3,54.8,29.68,South,173,14.0,19.0,43,0.00,,,0.00,752,WeatherCatV1.21B27,2013-09-22 19:32:00,
2013-09-22 14:34:00,79.2,54.8,29.68,South,184,17.0,17.0,43,0.00,,,0.00,749,WeatherCatV1.21B27,2013-09-22 19:34:00,
2013-09-22 14:37:00,79.4,55.6,29.67,South,171,6.0,12.0,44,0.00,,,0.00,745,WeatherCatV1.21B27,2013-09-22 19:37:00,
2013-09-22 14:39:00,79.7,55.8,29.67,SSW,193,5.0,13.0,44,0.00,,,0.00,744,WeatherCatV1.21B27,2013-09-22 19:39:00,
2013-09-22 14:42:00,79.7,55.2,29.67,SE,128,9.0,26.0,43,0.00,,,0.00,740,WeatherCatV1.21B27,2013-09-22 19:42:00,
2013-09-22 14:43:00,79.6,55.1,29.67,SW,229,6.0,19.0,43,0.00,,,0.00,738,WeatherCatV1.21B27,2013-09-22 19:43:00,
2013-09-22 14:44:00,79.6,55.1,29.67,SE,146,5.0,19.0,43,0.00,,,0.00,737,WeatherCatV1.21B27,2013-09-22 19:44:00,
2013-09-22 14:45:00,79.6,55.1,29.67,SE,138,5.0,15.0,43,0.00,,,0.00,737,WeatherCatV1.21B27,2013-09-22 19:45:00,
2013-09-22 14:47:00,79.5,55.0,29.67,SSW,202,7.0,19.0,43,0.00,,,0.00,731,WeatherCatV1.21B27,2013-09-22 19:47:00,
2013-09-22 14:48:00,79.6,55.1,29.67,SSE,153,3.0,15.0,43,0.00,,,0.00,731,WeatherCatV1.21B27,2013-09-22 19:48:00,
2013-09-22 14:49:00,79.7,55.2,29.67,SSE,168,6.0,14.0,43,0.00,,,0.00,729,WeatherCatV1.21B27,2013-09-22 19:49:00,
2013-09-22 14:50:00,79.7,55.2,29.67,SE,129,7.0,11.0,43,0.00,,,0.00,729,WeatherCatV1.21B27,2013-09-22 19:50:00,
2013-09-22 14:52:00,79.9,54.7,29.67,SE,129,5.0,18.0,42,0.00,,,0.00,726,WeatherCatV1.21B27,2013-09-22 19:52:00,
2013-09-22 14:53:00,79.9,54.7,29.67,SSW,203,8.0,21.0,42,0.00,,,0.00,724,WeatherCatV1.21B27,2013-09-22 19:53:00,
2013-09-22 14:55:00,80.0,54.8,29.67,SSE,162,9.0,27.0,42,0.00,,,0.00,722,WeatherCatV1.21B27,2013-09-22 19:55:00,
2013-09-22 14:57:00,80.0,54.8,29.66,SSE,165,17.0,24.0,42,0.00,,,0.00,721,WeatherCatV1.21B27,2013-09-22 19:57:00,
2013-09-22 14:58:00,80.0,54.8,29.67,SE,144,2.0,24.0,42,0.00,,,0.00,719,WeatherCatV1.21B27,2013-09-22 19:58:00,
2013-09-22 15:00:00,80.0,54.8,29.67,SE,146,10.0,18.0,42,0.00,,,0.00,715,WeatherCatV1.21B27,2013-09-22 20:00:00,
2013-09-22 15:02:00,80.1,54.9,29.67,SW,215,8.0,14.0,42,0.00,,,0.00,714,WeatherCatV1.21B27,2013-09-22 20:02:00,
2013-09-22 15:03:00,80.2,55.0,29.67,SSW,202,0.0,14.0,42,0.00,,,0.00,710,WeatherCatV1.21B27,2013-09-22 20:03:00,
2013-09-22 15:05:00,80.4,55.2,29.67,South,171,12.0,18.0,42,0.00,,,0.00,707,WeatherCatV1.21B27,2013-09-22 20:05:00,
2013-09-22 15:07:00,80.5,55.3,29.67,SE,137,7.0,14.0,42,0.00,,,0.00,703,WeatherCatV1.21B27,2013-09-22 20:07:00,
2013-09-22 15:08:00,80.6,55.4,29.66,SSE,153,7.0,14.0,42,0.00,,,0.00,703,WeatherCatV1.21B27,2013-09-22 20:08:00,
2013-09-22 15:10:00,80.6,55.4,29.66,SE,138,7.0,20.0,42,0.00,,,0.00,698,WeatherCatV1.21B27,2013-09-22 20:10:00,
2013-09-22 15:12:00,80.5,54.6,29.66,ESE,121,5.0,24.0,41,0.00,,,0.00,694,WeatherCatV1.21B27,2013-09-22 20:12:00,
2013-09-22 15:13:00,80.5,55.3,29.66,South,170,4.0,24.0,42,0.00,,,0.00,694,WeatherCatV1.21B27,2013-09-22 20:13:00,
2013-09-22 15:15:00,80.6,56.0,29.66,SSW,205,5.0,6.0,43,0.00,,,0.00,691,WeatherCatV1.21B27,2013-09-22 20:15:00,
2013-09-22 15:17:00,80.8,54.9,29.66,South,191,4.0,14.0,41,0.00,,,0.00,686,WeatherCatV1.21B27,2013-09-22 20:17:00,
2013-09-22 15:18:00,80.9,55.0,29.66,SW,215,4.0,14.0,41,0.00,,,0.00,686,WeatherCatV1.21B27,2013-09-22 20:18:00,
2013-09-22 15:20:00,80.8,54.9,29.66,SSW,198,12.0,22.0,41,0.00,,,0.00,682,WeatherCatV1.21B27,2013-09-22 20:20:00,
2013-09-22 15:22:00,80.7,54.8,29.66,South,184,4.0,17.0,41,0.00,,,0.00,675,WeatherCatV1.21B27,2013-09-22 20:22:00,
2013-09-22 15:24:00,80.7,54.8,29.66,SSW,213,14.0,16.0,41,0.00,,,0.00,675,WeatherCatV1.21B27,2013-09-22 20:24:00,
2013-09-22 15:25:00,80.8,54.9,29.66,SSW,202,2.0,16.0,41,0.00,,,0.00,671,WeatherCatV1.21B27,2013-09-22 20:25:00,
2013-09-22 15:26:00,80.8,54.9,29.66,ESE,109,4.0,16.0,41,0.00,,,0.00,670,WeatherCatV1.21B27,2013-09-22 20:26:00,
2013-09-22 15:27:00,80.8,54.9,29.66,ESE,105,10.0,17.0,41,0.00,,,0.00,666,WeatherCatV1.21B27,2013-09-22 20:27:00,
2013-09-22 15:29:00,80.7,54.1,29.66,SSW,196,7.0,21.0,40,0.00,,,0.00,661,WeatherCatV1.21B27,2013-09-22 20:29:00,
2013-09-22 15:30:00,80.6,54.0,29.66,SE,138,11.0,21.0,40,0.00,,,0.00,661,WeatherCatV1.21B27,2013-09-22 20:30:00,
2013-09-22 15:31:00,80.5,54.6,29.66,SE,129,0.0,18.0,41,0.00,,,0.00,661,WeatherCatV1.21B27,2013-09-22 20:31:00,
2013-09-22 15:32:00,80.4,54.5,29.65,South,169,0.0,17.0,41,0.00,,,0.00,659,WeatherCatV1.21B27,2013-09-22 20:32:00,
2013-09-22 15:34:00,80.7,55.5,29.65,SSW,213,6.0,15.0,42,0.00,,,0.00,654,WeatherCatV1.21B27,2013-09-22 20:34:00,
2013-09-22 15:35:00,80.9,55.0,29.65,SE,128,13.0,15.0,41,0.00,,,0.00,654,WeatherCatV1.21B27,2013-09-22 20:35:00,
2013-09-22 15:36:00,80.9,55.0,29.65,SW,234,17.0,18.0,41,0.00,,,0.00,649,WeatherCatV1.21B27,2013-09-22 20:36:00,
2013-09-22 15:37:00,80.9,54.3,29.65,SSW,209,12.0,12.0,40,0.00,,,0.00,647,WeatherCatV1.21B27,2013-09-22 20:37:00,
2013-09-22 15:40:00,80.9,54.3,29.65,South,188,12.0,20.0,40,0.00,,,0.00,642,WeatherCatV1.21B27,2013-09-22 20:40:00,
2013-09-22 15:41:00,80.9,55.0,29.65,South,175,11.0,20.0,41,0.00,,,0.00,642,WeatherCatV1.21B27,2013-09-22 20:41:00,
2013-09-22 15:43:00,80.8,54.2,29.65,SSE,164,7.0,19.0,40,0.00,,,0.00,638,WeatherCatV1.21B27,2013-09-22 20:43:00,
2013-09-22 15:45:00,80.6,54.0,29.65,South,187,6.0,21.0,40,0.00,,,0.00,633,WeatherCatV1.21B27,2013-09-22 20:45:00,
2013-09-22 15:46:00,80.5,54.6,29.65,South,184,10.0,21.0,41,0.00,,,0.00,629,WeatherCatV1.21B27,2013-09-22 20:46:00,
2013-09-22 15:48:00,80.5,54.6,29.65,SE,138,6.0,11.0,41,0.00,,,0.00,628,WeatherCatV1.21B27,2013-09-22 20:48:00,
2013-09-22 15:50:00,80.6,54.7,29.65,SE,140,7.0,16.0,41,0.00,,,0.00,621,WeatherCatV1.21B27,2013-09-22 20:50:00,
2013-09-22 15:51:00,80.7,54.1,29.65,South,180,11.0,18.0,40,0.00,,,0.00,617,WeatherCatV1.21B27,2013-09-22 20:51:00,
2013-09-22 15:53:00,80.8,54.2,29.65,South,171,9.0,18.0,40,0.00,,,0.00,613,WeatherCatV1.21B27,2013-09-22 20:53:00,
2013-09-22 15:55:00,80.8,54.2,29.65,SSE,159,6.0,18.0,40,0.00,,,0.00,610,WeatherCatV1.21B27,2013-09-22 20:55:00,
2013-09-22 15:56:00,80.8,54.9,29.65,South,191,7.0,18.0,41,0.00,,,0.00,606,WeatherCatV1.21B27,2013-09-22 20:56:00,
2013-09-22 15:58:00,80.7,54.8,29.65,South,186,13.0,21.0,41,0.00,,,0.00,599,WeatherCatV1.21B27,2013-09-22 20:58:00,
2013-09-22 16:00:00,80.7,54.8,29.64,SSW,205,7.0,21.0,41,0.00,,,0.00,598,WeatherCatV1.21B27,2013-09-22 21:00:00,
2013-09-22 16:01:00,80.8,54.9,29.65,South,182,6.0,14.0,41,0.00,,,0.00,596,WeatherCatV1.21B27,2013-09-22 21:01:00,
2013-09-22 16:03:00,80.8,54.9,29.65,East,99,6.0,18.0,41,0.00,,,0.00,589,WeatherCatV1.21B27,2013-09-22 21:03:00,
2013-09-22 16:05:00,80.6,54.0,29.65,SSW,205,19.0,25.0,40,0.00,,,0.00,584,WeatherCatV1.21B27,2013-09-22 21:05:00,
2013-09-22 16:06:00,80.6,54.0,29.65,SSW,213,11.0,20.0,40,0.00,,,0.00,584,WeatherCatV1.21B27,2013-09-22 21:06:00,
2013-09-22 16:07:00,80.5,53.9,29.65,South,183,4.0,15.0,40,0.00,,,0.00,580,WeatherCatV1.21B27,2013-09-22 21:07:00,
2013-09-22 16:08:00,80.6,54.0,29.65,SE,136,9.0,15.0,40,0.00,,,0.00,577,WeatherCatV1.21B27,2013-09-22 21:08:00,
2013-09-22 16:10:00,80.6,54.7,29.65,SW,217,5.0,8.0,41,0.00,,,0.00,575,WeatherCatV1.21B27,2013-09-22 21:10:00,
2013-09-22 16:11:00,80.7,54.8,29.64,SE,140,1.0,9.0,41,0.00,,,0.00,573,WeatherCatV1.21B27,2013-09-22 21:11:00,
2013-09-22 16:12:00,80.8,54.2,29.64,SSE,168,9.0,13.0,40,0.00,,,0.00,568,WeatherCatV1.21B27,2013-09-22 21:12:00,
2013-09-22 16:13:00,80.7,54.1,29.64,South,183,10.0,19.0,40,0.00,,,0.00,564,WeatherCatV1.21B27,2013-09-22 21:13:00,
2013-09-22 16:15:00,80.7,54.8,29.64,SSE,167,5.0,13.0,41,0.00,,,0.00,557,WeatherCatV1.21B27,2013-09-22 21:15:00,
2013-09-22 16:16:00,80.7,54.8,29.64,South,173,6.0,13.0,41,0.00,,,0.00,557,WeatherCatV1.21B27,2013-09-22 21:16:00,
2013-09-22 16:17:00,80.7,54.8,29.64,South,176,5.0,19.0,41,0.00,,,0.00,555,WeatherCatV1.21B27,2013-09-22 21:17:00,
2013-09-22 16:19:00,80.6,54.0,29.64,South,186,17.0,17.0,40,0.00,,,0.00,550,WeatherCatV1.21B27,2013-09-22 21:19:00,
2013-09-22 16:20:00,80.5,54.6,29.64,SSE,156,9.0,15.0,41,0.00,,,0.00,547,WeatherCatV1.21B27,2013-09-22 21:20:00,
2013-09-22 16:21:00,80.5,54.6,29.64,ESE,119,15.0,15.0,41,0.00,,,0.00,547,WeatherCatV1.21B27,2013-09-22 21:21:00,
2013-09-22 16:22:00,80.5,53.9,29.64,South,179,3.0,16.0,40,0.00,,,0.00,541,WeatherCatV1.21B27,2013-09-22 21:22:00,
2013-09-22 16:24:00,80.5,53.9,29.64,South,178,10.0,14.0,40,0.00,,,0.00,536,WeatherCatV1.21B27,2013-09-22 21:24:00,
2013-09-22 16:25:00,80.5,53.9,29.64,South,189,11.0,14.0,40,0.00,,,0.00,531,WeatherCatV1.21B27,2013-09-22 21:25:00,
2013-09-22 16:26:00,80.6,54.0,29.64,SSE,160,6.0,11.0,40,0.00,,,0.00,531,WeatherCatV1.21B27,2013-09-22 21:26:00,
2013-09-22 16:28:00,80.7,54.1,29.64,ESE,119,6.0,18.0,40,0.00,,,0.00,524,WeatherCatV1.21B27,2013-09-22 21:28:00,
2013-09-22 16:29:00,80.7,54.1,29.64,East,92,13.0,18.0,40,0.00,,,0.00,524,WeatherCatV1.21B27,2013-09-22 21:29:00,
2013-09-22 16:31:00,80.7,54.1,29.64,SSE,156,14.0,20.0,40,0.00,,,0.00,517,WeatherCatV1.21B27,2013-09-22 21:31:00,
2013-09-22 16:34:00,80.6,54.0,29.64,ESE,116,4.0,18.0,40,0.00,,,0.00,512,WeatherCatV1.21B27,2013-09-22 21:34:00,
2013-09-22 16:36:00,80.4,53.8,29.63,SE,141,20.0,20.0,40,0.00,,,0.00,503,WeatherCatV1.21B27,2013-09-22 21:36:00,
2013-09-22 16:39:00,80.4,53.8,29.64,East,97,11.0,25.0,40,0.00,,,0.00,496,WeatherCatV1.21B27,2013-09-22 21:39:00,
2013-09-22 16:41:00,80.5,54.6,29.63,ESE,121,7.0,19.0,41,0.00,,,0.00,492,WeatherCatV1.21B27,2013-09-22 21:41:00,
2013-09-22 16:44:00,80.5,53.2,29.63,SSE,168,12.0,15.0,39,0.00,,,0.00,483,WeatherCatV1.21B27,2013-09-22 21:44:00,
2013-09-22 16:46:00,80.5,53.9,29.63,South,188,2.0,18.0,40,0.00,,,0.00,476,WeatherCatV1.21B27,2013-09-22 21:46:00,
2013-09-22 16:47:00,80.5,53.9,29.63,South,188,5.0,18.0,40,0.00,,,0.00,476,WeatherCatV1.21B27,2013-09-22 21:47:00,
2013-09-22 16:49:00,80.5,53.2,29.63,SW,225,9.0,17.0,39,0.00,,,0.00,468,WeatherCatV1.21B27,2013-09-22 21:49:00,
2013-09-22 16:51:00,80.5,53.9,29.63,SSE,164,10.0,21.0,40,0.00,,,0.00,462,WeatherCatV1.21B27,2013-09-22 21:51:00,
2013-09-22 16:52:00,80.4,53.8,29.63,ESE,119,3.0,21.0,40,0.00,,,0.00,459,WeatherCatV1.21B27,2013-09-22 21:52:00,
2013-09-22 16:54:00,80.3,53.8,29.63,SSW,192,10.0,20.0,40,0.00,,,0.00,454,WeatherCatV1.21B27,2013-09-22 21:54:00,
2013-09-22 16:55:00,80.2,53.0,29.63,SSE,157,5.0,20.0,39,0.00,,,0.00,450,WeatherCatV1.21B27,2013-09-22 21:55:00,
2013-09-22 16:57:00,80.2,53.0,29.63,SE,142,2.0,22.0,39,0.00,,,0.00,446,WeatherCatV1.21B27,2013-09-22 21:57:00,
2013-09-22 16:59:00,80.2,53.0,29.63,WSW,246,6.0,21.0,39,0.00,,,0.00,441,WeatherCatV1.21B27,2013-09-22 21:59:00,
2013-09-22 17:00:00,80.1,53.6,29.64,SE,146,4.0,21.0,40,0.00,,,0.00,434,WeatherCatV1.21B27,2013-09-22 22:00:00,
2013-09-22 17:02:00,80.1,54.2,29.63,ESE,110,1.0,17.0,41,0.00,,,0.00,429,WeatherCatV1.21B27,2013-09-22 22:02:00,
2013-09-22 17:04:00,80.2,53.7,29.64,SE,141,10.0,15.0,40,0.00,,,0.00,425,WeatherCatV1.21B27,2013-09-22 22:04:00,
2013-09-22 17:05:00,80.2,53.7,29.63,South,176,2.0,17.0,40,0.00,,,0.00,420,WeatherCatV1.21B27,2013-09-22 22:05:00,
2013-09-22 17:07:00,80.2,53.7,29.63,South,183,15.0,19.0,40,0.00,,,0.00,415,WeatherCatV1.21B27,2013-09-22 22:07:00,
2013-09-22 17:08:00,80.3,53.8,29.63,SSE,159,6.0,19.0,40,0.00,,,0.00,411,WeatherCatV1.21B27,2013-09-22 22:08:00,
2013-09-22 17:09:00,80.3,53.8,29.63,SSE,153,4.0,12.0,40,0.00,,,0.00,408,WeatherCatV1.21B27,2013-09-22 22:09:00,
2013-09-22 17:10:00,80.3,53.8,29.63,SE,136,5.0,9.0,40,0.00,,,0.00,404,WeatherCatV1.21B27,2013-09-22 22:10:00,
2013-09-22 17:12:00,80.3,53.8,29.63,SW,229,14.0,14.0,40,0.00,,,0.00,399,WeatherCatV1.21B27,2013-09-22 22:12:00,
2013-09-22 17:13:00,80.4,53.8,29.63,East,96,11.0,25.0,40,0.00,,,0.00,396,WeatherCatV1.21B27,2013-09-22 22:13:00,
2013-09-22 17:14:00,80.3,53.8,29.63,SE,142,3.0,25.0,40,0.00,,,0.00,392,WeatherCatV1.21B27,2013-09-22 22:14:00,
2013-09-22 17:15:00,80.3,54.4,29.63,ESE,119,11.0,14.0,41,0.00,,,0.00,388,WeatherCatV1.21B27,2013-09-22 22:15:00,
2013-09-22 17:17:00,80.1,53.6,29.63,SE,146,11.0,16.0,40,0.00,,,0.00,385,WeatherCatV1.21B27,2013-09-22 22:17:00,
2013-09-22 17:18:00,80.0,53.5,29.63,South,186,10.0,17.0,40,0.00,,,0.00,380,WeatherCatV1.21B27,2013-09-22 22:18:00,
2013-09-22 17:20:00,80.0,53.5,29.63,SSW,202,4.0,13.0,40,0.00,,,0.00,376,WeatherCatV1.21B27,2013-09-22 22:20:00,
2013-09-22 17:22:00,79.9,53.4,29.63,East,101,10.0,20.0,40,0.00,,,0.00,369,WeatherCatV1.21B27,2013-09-22 22:22:00,
2013-09-22 17:23:00,79.8,53.3,29.63,South,169,12.0,16.0,40,0.00,,,0.00,366,WeatherCatV1.21B27,2013-09-22 22:23:00,
2013-09-22 17:25:00,79.7,53.2,29.63,ENE,60,15.0,19.0,40,0.00,,,0.00,360,WeatherCatV1.21B27,2013-09-22 22:25:00,
2013-09-22 17:26:00,79.7,53.2,29.63,South,190,6.0,19.0,40,0.00,,,0.00,355,WeatherCatV1.21B27,2013-09-22 22:26:00,
2013-09-22 17:27:00,79.7,53.9,29.63,NE,44,4.0,15.0,41,0.00,,,0.00,353,WeatherCatV1.21B27,2013-09-22 22:27:00,
2013-09-22 17:28:00,79.7,53.9,29.63,SE,140,6.0,21.0,41,0.00,,,0.00,350,WeatherCatV1.21B27,2013-09-22 22:28:00,
2013-09-22 17:30:00,79.7,53.9,29.63,SSE,163,12.0,21.0,41,0.00,,,0.00,341,WeatherCatV1.21B27,2013-09-22 22:30:00,
2013-09-22 17:31:00,79.7,53.2,29.63,South,173,10.0,24.0,40,0.00,,,0.00,341,WeatherCatV1.21B27,2013-09-22 22:31:00,
2013-09-22 17:32:00,79.7,53.2,29.63,SSW,192,3.0,24.0,40,0.00,,,0.00,336,WeatherCatV1.21B27,2013-09-22 22:32:00,
2013-09-22 17:34:00,79.7,53.2,29.63,SSE,156,4.0,15.0,40,0.00,,,0.00,329,WeatherCatV1.21B27,2013-09-22 22:34:00,
2013-09-22 17:35:00,79.6,53.8,29.63,SSW,209,7.0,18.0,41,0.00,,,0.00,325,WeatherCatV1.21B27,2013-09-22 22:35:00,
2013-09-22 17:36:00,79.6,53.8,29.63,SE,137,10.0,18.0,41,0.00,,,0.00,322,WeatherCatV1.21B27,2013-09-22 22:36:00,
2013-09-22 17:37:00,79.6,53.8,29.63,SSE,168,3.0,10.0,41,0.00,,,0.00,320,WeatherCatV1.21B27,2013-09-22 22:37:00,
2013-09-22 17:39:00,79.7,53.2,29.63,SW,214,18.0,18.0,40,0.00,,,0.00,315,WeatherCatV1.21B27,2013-09-22 22:39:00,
2013-09-22 17:40:00,79.7,53.2,29.63,SSW,205,1.0,23.0,40,0.00,,,0.00,308,WeatherCatV1.21B27,2013-09-22 22:40:00,
2013-09-22 17:41:00,79.7,53.2,29.63,SSW,205,3.0,23.0,40,0.00,,,0.00,308,WeatherCatV1.21B27,2013-09-22 22:41:00,
2013-09-22 17:42:00,79.6,53.8,29.63,ESE,115,11.0,14.0,41,0.00,,,0.00,304,WeatherCatV1.21B27,2013-09-22 22:42:00,
2013-09-22 17:44:00,79.5,53.7,29.63,South,169,14.0,19.0,41,0.00,,,0.00,287,WeatherCatV1.21B27,2013-09-22 22:44:00,
2013-09-22 17:45:00,79.4,53.0,29.63,SE,146,7.0,21.0,40,0.00,,,0.00,290,WeatherCatV1.21B27,2013-09-22 22:45:00,
2013-09-22 17:46:00,79.4,53.0,29.63,SE,146,11.0,21.0,40,0.00,,,0.00,290,WeatherCatV1.21B27,2013-09-22 22:46:00,
2013-09-22 17:47:00,79.3,53.5,29.63,SSE,166,4.0,21.0,41,0.00,,,0.00,285,WeatherCatV1.21B27,2013-09-22 22:47:00,
2013-09-22 17:50:00,79.2,52.8,29.63,SSE,159,11.0,20.0,40,0.00,,,0.00,274,WeatherCatV1.21B27,2013-09-22 22:50:00,
2013-09-22 17:51:00,79.1,52.7,29.63,SSE,157,7.0,20.0,40,0.00,,,0.00,272,WeatherCatV1.21B27,2013-09-22 22:51:00,
2013-09-22 17:52:00,79.1,53.3,29.63,SE,129,15.0,19.0,41,0.00,,,0.00,272,WeatherCatV1.21B27,2013-09-22 22:52:00,
2013-09-22 17:55:00,79.1,53.3,29.63,SSE,148,6.0,19.0,41,0.00,,,0.00,258,WeatherCatV1.21B27,2013-09-22 22:55:00,
2013-09-22 17:56:00,79.1,53.3,29.63,SE,130,0.0,19.0,41,0.00,,,0.00,257,WeatherCatV1.21B27,2013-09-22 22:56:00,
2013-09-22 17:57:00,79.0,53.3,29.63,SSW,209,5.0,14.0,41,0.00,,,0.00,255,WeatherCatV1.21B27,2013-09-22 22:57:00,
2013-09-22 18:00:00,78.9,53.2,29.63,SSE,163,4.0,13.0,41,0.00,,,0.00,241,WeatherCatV1.21B27,2013-09-22 23:00:00,
2013-09-22 18:01:00,78.9,53.2,29.63,SSE,150,13.0,13.0,41,0.00,,,0.00,236,WeatherCatV1.21B27,2013-09-22 23:01:00,
2013-09-22 18:02:00,78.9,53.2,29.63,SSE,150,7.0,16.0,41,0.00,,,0.00,230,WeatherCatV1.21B27,2013-09-22 23:02:00,
2013-09-22 18:05:00,78.9,53.2,29.63,SSE,167,1.0,7.0,41,0.00,,,0.00,220,WeatherCatV1.21B27,2013-09-22 23:05:00,
2013-09-22 18:06:00,78.9,53.2,29.63,South,190,18.0,18.0,41,0.00,,,0.00,216,WeatherCatV1.21B27,2013-09-22 23:06:00,
2013-09-22 18:07:00,78.8,53.1,29.63,SSE,157,3.0,18.0,41,0.00,,,0.00,213,WeatherCatV1.21B27,2013-09-22 23:07:00,
2013-09-22 18:10:00,78.7,53.0,29.63,SSE,155,4.0,15.0,41,0.00,,,0.00,204,WeatherCatV1.21B27,2013-09-22 23:10:00,
2013-09-22 18:11:00,78.7,53.7,29.63,SE,140,9.0,12.0,42,0.00,,,0.00,195,WeatherCatV1.21B27,2013-09-22 23:11:00,
2013-09-22 18:12:00,78.7,53.7,29.63,ESE,112,6.0,12.0,42,0.00,,,0.00,195,WeatherCatV1.21B27,2013-09-22 23:12:00,
2013-09-22 18:15:00,78.5,53.5,29.63,South,184,11.0,15.0,42,0.00,,,0.00,181,WeatherCatV1.21B27,2013-09-22 23:15:00,
2013-09-22 18:17:00,78.5,53.5,29.63,South,176,2.0,16.0,42,0.00,,,0.00,176,WeatherCatV1.21B27,2013-09-22 23:17:00,
2013-09-22 18:21:00,78.2,53.8,29.63,East,96,7.0,16.0,43,0.00,,,0.00,158,WeatherCatV1.21B27,2013-09-22 23:21:00,
2013-09-22 18:22:00,78.1,53.1,29.63,South,180,6.0,11.0,42,0.00,,,0.00,153,WeatherCatV1.21B27,2013-09-22 23:22:00,
2013-09-22 18:27:00,77.9,53.6,29.63,SW,215,3.0,10.0,43,0.00,,,0.00,135,WeatherCatV1.21B27,2013-09-22 23:27:00,
2013-09-22 18:28:00,78.0,53.7,29.63,South,188,7.0,13.0,43,0.00,,,0.00,132,WeatherCatV1.21B27,2013-09-22 23:28:00,
2013-09-22 18:32:00,77.8,52.8,29.63,South,170,6.0,18.0,42,0.00,,,0.00,114,WeatherCatV1.21B27,2013-09-22 23:32:00,
2013-09-22 18:33:00,77.8,52.8,29.62,SSE,156,11.0,18.0,42,0.00,,,0.00,114,WeatherCatV1.21B27,2013-09-22 23:33:00,
2013-09-22 18:37:00,77.5,53.2,29.63,SSE,150,6.0,11.0,43,0.00,,,0.00,98,WeatherCatV1.21B27,2013-09-22 23:37:00,
2013-09-22 18:38:00,77.5,53.2,29.63,SSE,156,5.0,11.0,43,0.00,,,0.00,95,WeatherCatV1.21B27,2013-09-22 23:38:00,
2013-09-22 18:42:00,77.3,53.0,29.63,SE,137,11.0,16.0,43,0.00,,,0.00,79,WeatherCatV1.21B27,2013-09-22 23:42:00,
2013-09-22 18:43:00,77.3,53.0,29.63,SE,144,11.0,16.0,43,0.00,,,0.00,79,WeatherCatV1.21B27,2013-09-22 23:43:00,
2013-09-22 18:47:00,77.0,53.4,29.63,SSW,211,4.0,16.0,44,0.00,,,0.00,65,WeatherCatV1.21B27,2013-09-22 23:47:00,
2013-09-22 18:48:00,76.9,53.3,29.63,SSW,213,11.0,11.0,44,0.00,,,0.00,65,WeatherCatV1.21B27,2013-09-22 23:48:00,
2013-09-22 18:53:00,76.6,53.0,29.63,SE,145,1.0,9.0,44,0.00,,,0.00,51,WeatherCatV1.21B27,2013-09-22 23:53:00,
2013-09-22 18:58:00,76.0,53.1,29.63,SSE,159,5.0,11.0,45,0.00,,,0.00,37,WeatherCatV1.21B27,2013-09-22 23:58:00,
2013-09-22 18:59:00,75.9,53.0,29.63,South,181,4.0,11.0,45,0.00,,,0.00,35,WeatherCatV1.21B27,2013-09-22 23:59:00,
2013-09-22 19:03:00,75.7,52.8,29.63,SSE,158,3.0,10.0,45,0.00,,,0.00,26,WeatherCatV1.21B27,2013-09-23 00:03:00,
2013-09-22 19:04:00,75.6,52.7,29.63,SSE,168,5.0,12.0,45,0.00,,,0.00,23,WeatherCatV1.21B27,2013-09-23 00:04:00,
2013-09-22 19:08:00,75.3,52.5,29.63,South,173,1.0,11.0,45,0.00,,,0.00,18,WeatherCatV1.21B27,2013-09-23 00:08:00,
2013-09-22 19:09:00,75.3,53.1,29.63,South,180,2.0,6.0,46,0.00,,,0.00,18,WeatherCatV1.21B27,2013-09-23 00:09:00,
2013-09-22 19:10:00,75.2,53.0,29.63,SE,141,7.0,10.0,46,0.00,,,0.00,16,WeatherCatV1.21B27,2013-09-23 00:10:00,
2013-09-22 19:13:00,74.9,52.7,29.63,SE,136,4.0,9.0,46,0.00,,,0.00,12,WeatherCatV1.21B27,2013-09-23 00:13:00,
2013-09-22 19:14:00,74.8,52.6,29.64,SE,140,3.0,10.0,46,0.00,,,0.00,12,WeatherCatV1.21B27,2013-09-23 00:14:00,
2013-09-22 19:15:00,74.8,52.6,29.63,South,182,4.0,10.0,46,0.00,,,0.00,12,WeatherCatV1.21B27,2013-09-23 00:15:00,
2013-09-22 19:18:00,74.6,53.0,29.64,SSE,150,4.0,9.0,47,0.00,,,0.00,11,WeatherCatV1.21B27,2013-09-23 00:18:00,
2013-09-22 19:19:00,74.5,52.9,29.64,SE,137,5.0,18.0,47,0.00,,,0.00,9,WeatherCatV1.21B27,2013-09-23 00:19:00,
2013-09-22 19:20:00,74.3,52.8,29.64,SSE,160,3.0,18.0,47,0.00,,,0.00,9,WeatherCatV1.21B27,2013-09-23 00:20:00,
2013-09-22 19:23:00,74.1,52.6,29.64,SE,132,6.0,12.0,47,0.00,,,0.00,7,WeatherCatV1.21B27,2013-09-23 00:23:00,
2013-09-22 19:24:00,74.1,52.6,29.64,SE,132,5.0,8.0,47,0.00,,,0.00,7,WeatherCatV1.21B27,2013-09-23 00:24:00,
2013-09-22 19:25:00,74.0,52.5,29.64,South,169,5.0,10.0,47,0.00,,,0.00,5,WeatherCatV1.21B27,2013-09-23 00:25:00,
2013-09-22 19:28:00,73.8,52.3,29.64,SE,132,10.0,10.0,47,0.00,,,0.00,5,WeatherCatV1.21B27,2013-09-23 00:28:00,
2013-09-22 19:29:00,73.8,52.3,29.63,SE,136,5.0,10.0,47,0.00,,,0.00,0,WeatherCatV1.21B27,2013-09-23 00:29:00,
2013-09-22 19:30:00,73.6,52.1,29.64,South,191,3.0,6.0,47,0.00,,,0.00,0,WeatherCatV1.21B27,2013-09-23 00:30:00,
2013-09-22 19:33:00,73.4,52.5,29.63,ESE,122,2.0,11.0,48,0.00,,,0.00,0,WeatherCatV1.21B27,2013-09-23 00:33:00,
2013-09-22 19:34:00,73.3,52.4,29.64,SSE,148,4.0,9.0,48,0.00,,,0.00,0,WeatherCatV1.21B27,2013-09-23 00:34:00,
2013-09-22 19:35:00,73.2,52.3,29.64,SE,142,2.0,9.0,48,0.00,,,0.00,0,WeatherCatV1.21B27,2013-09-23 00:35:00,
2013-09-22 19:38:00,73.0,52.7,29.64,ESE,123,3.0,7.0,49,0.00,,,0.00,0,WeatherCatV1.21B27,2013-09-23 00:38:00,
2013-09-22 19:39:00,72.9,52.6,29.64,SE,146,9.0,9.0,49,0.00,,,0.00,0,WeatherCatV1.21B27,2013-09-23 00:39:00,
2013-09-22 19:41:00,72.8,52.5,29.64,SE,144,2.0,5.0,49,0.00,,,0.00,0,WeatherCatV1.21B27,2013-09-23 00:41:00,
2013-09-22 19:43:00,72.6,52.3,29.64,ESE,107,6.0,10.0,49,0.00,,,0.00,0,WeatherCatV1.21B27,2013-09-23 00:43:00,
2013-09-22 19:44:00,72.6,52.3,29.64,SE,134,0.0,7.0,49,0.00,,,0.00,0,WeatherCatV1.21B27,2013-09-23 00:44:00,
2013-09-22 19:46:00,72.4,52.2,29.64,SSE,165,4.0,10.0,49,0.00,,,0.00,0,WeatherCatV1.21B27,2013-09-23 00:46:00,
2013-09-22 19:48:00,72.3,52.6,29.64,South,171,2.0,10.0,50,0.00,,,0.00,0,WeatherCatV1.21B27,2013-09-23 00:48:00,
2013-09-22 19:49:00,72.2,52.5,29.64,SSE,155,2.0,9.0,50,0.00,,,0.00,0,WeatherCatV1.21B27,2013-09-23 00:49:00,
2013-09-22 19:51:00,72.0,52.3,29.64,South,169,9.0,9.0,50,0.00,,,0.00,0,WeatherCatV1.21B27,2013-09-23 00:51:00,
2013-09-22 19:53:00,71.9,52.8,29.64,SE,146,5.0,9.0,51,0.00,,,0.00,0,WeatherCatV1.21B27,2013-09-23 00:53:00,
2013-09-22 19:54:00,71.9,52.8,29.64,South,172,5.0,11.0,51,0.00,,,0.00,0,WeatherCatV1.21B27,2013-09-23 00:54:00,
2013-09-22 19:56:00,71.7,52.6,29.64,SSE,159,2.0,4.0,51,0.00,,,0.00,0,WeatherCatV1.21B27,2013-09-23 00:56:00,
2013-09-22 19:58:00,71.6,53.0,29.64,SE,133,2.0,10.0,52,0.00,,,0.00,0,WeatherCatV1.21B27,2013-09-23 00:58:00,
2013-09-22 19:59:00,71.5,52.9,29.64,SE,127,5.0,7.0,52,0.00,,,0.00,0,WeatherCatV1.21B27,2013-09-23 00:59:00,
2013-09-22 20:01:00,71.4,52.3,29.64,SE,146,6.0,9.0,51,0.00,,,0.00,0,WeatherCatV1.21B27,2013-09-23 01:01:00,
2013-09-22 20:03:00,71.4,52.3,29.64,ESE,119,6.0,10.0,51,0.00,,,0.00,0,WeatherCatV1.21B27,2013-09-23 01:03:00,
2013-09-22 20:04:00,71.3,52.8,29.64,SE,134,5.0,10.0,52,0.00,,,0.00,0,WeatherCatV1.21B27,2013-09-23 01:04:00,
2013-09-22 20:06:00,71.2,52.7,29.64,East,85,4.0,11.0,52,0.00,,,0.00,0,WeatherCatV1.21B27,2013-09-23 01:06:00,
2013-09-22 20:08:00,71.0,52.5,29.64,SSE,165,2.0,9.0,52,0.00,,,0.00,0,WeatherCatV1.21B27,2013-09-23 01:08:00,
2013-09-22 20:09:00,71.0,52.5,29.64,SE,130,4.0,10.0,52,0.00,,,0.00,0,WeatherCatV1.21B27,2013-09-23 01:09:00,
2013-09-22 20:10:00,70.9,52.4,29.64,SSE,155,1.0,10.0,52,0.00,,,0.00,0,WeatherCatV1.21B27,2013-09-23 01:10:00,
2013-09-22 20:12:00,70.8,52.8,29.64,SE,145,5.0,6.0,53,0.00,,,0.00,0,WeatherCatV1.21B27,2013-09-23 01:12:00,
2013-09-22 20:13:00,70.6,52.1,29.64,SE,138,0.0,7.0,52,0.00,,,0.00,0,WeatherCatV1.21B27,2013-09-23 01:13:00,
2013-09-22 20:15:00,70.5,52.5,29.65,SE,145,1.0,4.0,53,0.00,,,0.00,0,WeatherCatV1.21B27,2013-09-23 01:15:00,
2013-09-22 20:17:00,70.2,52.2,29.64,SSE,152,3.0,7.0,53,0.00,,,0.00,0,WeatherCatV1.21B27,2013-09-23 01:17:00,
2013-09-22 20:18:00,70.2,52.2,29.64,SE,138,2.0,11.0,53,0.00,,,0.00,0,WeatherCatV1.21B27,2013-09-23 01:18:00,
2013-09-22 20:20:00,70.0,52.1,29.64,SE,126,0.0,10.0,53,0.00,,,0.00,0,WeatherCatV1.21B27,2013-09-23 01:20:00,
2013-09-22 20:23:00,69.8,52.4,29.64,SSE,150,2.0,2.0,54,0.00,,,0.00,0,WeatherCatV1.21B27,2013-09-23 01:23:00,
2013-09-22 20:25:00,69.7,52.3,29.64,South,180,2.0,11.0,54,0.00,,,0.00,0,WeatherCatV1.21B27,2013-09-23 01:25:00,
2013-09-22 20:26:00,69.7,52.3,29.64,South,180,1.0,11.0,54,0.00,,,0.00,0,WeatherCatV1.21B27,2013-09-23 01:26:00,
2013-09-22 20:28:00,69.6,52.2,29.64,SSE,165,5.0,7.0,54,0.00,,,0.00,0,WeatherCatV1.21B27,2013-09-23 01:28:00,
2013-09-22 20:29:00,69.6,52.2,29.64,SSE,165,3.0,7.0,54,0.00,,,0.00,0,WeatherCatV1.21B27,2013-09-23 01:29:00,
2013-09-22 20:31:00,69.4,52.5,29.64,SSE,152,2.0,4.0,55,0.00,,,0.00,0,WeatherCatV1.21B27,2013-09-23 01:31:00,
2013-09-22 20:34:00,69.2,52.3,29.65,South,177,1.0,7.0,55,0.00,,,0.00,0,WeatherCatV1.21B27,2013-09-23 01:34:00,
2013-09-22 20:36:00,69.0,52.2,29.65,SE,146,7.0,7.0,55,0.00,,,0.00,0,WeatherCatV1.21B27,2013-09-23 01:36:00,
2013-09-22 20:39:00,68.7,52.4,29.65,SE,138,5.0,5.0,56,0.00,,,0.00,0,WeatherCatV1.21B27,2013-09-23 01:39:00,
2013-09-22 20:41:00,68.6,52.3,29.65,SSE,152,7.0,10.0,56,0.00,,,0.00,0,WeatherCatV1.21B27,2013-09-23 01:41:00,
2013-09-22 20:44:00,68.5,52.2,29.65,SSE,154,0.0,6.0,56,0.00,,,0.00,0,WeatherCatV1.21B27,2013-09-23 01:44:00,
2013-09-22 20:46:00,68.4,52.1,29.65,SE,134,2.0,8.0,56,0.00,,,0.00,0,WeatherCatV1.21B27,2013-09-23 01:46:00,
2013-09-22 20:49:00,68.3,52.0,29.65,SSE,153,4.0,6.0,56,0.00,,,0.00,0,WeatherCatV1.21B27,2013-09-23 01:49:00,
2013-09-22 20:50:00,68.3,52.0,29.65,ESE,122,5.0,6.0,56,0.00,,,0.00,0,WeatherCatV1.21B27,2013-09-23 01:50:00,
2013-09-22 20:51:00,68.2,52.4,29.65,SE,126,4.0,10.0,57,0.00,,,0.00,0,WeatherCatV1.21B27,2013-09-23 01:51:00,
2013-09-22 20:55:00,68.0,52.2,29.65,SE,128,7.0,11.0,57,0.00,,,0.00,0,WeatherCatV1.21B27,2013-09-23 01:55:00,
2013-09-22 20:56:00,67.9,52.6,29.65,SE,126,6.0,8.0,58,0.00,,,0.00,0,WeatherCatV1.21B27,2013-09-23 01:56:00,
2013-09-22 20:57:00,67.9,52.6,29.65,SE,126,1.0,8.0,58,0.00,,,0.00,0,WeatherCatV1.21B27,2013-09-23 01:57:00,
2013-09-22 21:00:00,67.8,52.5,29.65,SE,126,2.0,10.0,58,0.00,,,0.00,0,WeatherCatV1.21B27,2013-09-23 02:00:00,
2013-09-22 21:01:00,67.7,52.4,29.65,ESE,116,4.0,10.0,58,0.00,,,0.00,0,WeatherCatV1.21B27,2013-09-23 02:01:00,
2013-09-22 21:02:00,67.7,52.4,29.65,SE,134,4.0,9.0,58,0.00,,,0.00,0,WeatherCatV1.21B27,2013-09-23 02:02:00,
2013-09-22 21:05:00,67.7,52.4,29.65,SE,133,1.0,8.0,58,0.00,,,0.00,0,WeatherCatV1.21B27,2013-09-23 02:05:00,
2013-09-22 21:06:00,67.7,52.4,29.65,SSE,155,0.0,9.0,58,0.00,,,0.00,0,WeatherCatV1.21B27,2013-09-23 02:06:00,
2013-09-22 21:07:00,67.7,52.4,29.65,SSE,155,4.0,9.0,58,0.00,,,0.00,0,WeatherCatV1.21B27,2013-09-23 02:07:00,
2013-09-22 21:10:00,67.6,52.3,29.65,ESE,119,3.0,10.0,58,0.00,,,0.00,0,WeatherCatV1.21B27,2013-09-23 02:10:00,
2013-09-22 21:11:00,67.6,52.3,29.65,ESE,114,3.0,10.0,58,0.00,,,0.00,0,WeatherCatV1.21B27,2013-09-23 02:11:00,
2013-09-22 21:12:00,67.6,52.3,29.65,SSE,168,6.0,11.0,58,0.00,,,0.00,0,WeatherCatV1.21B27,2013-09-23 02:12:00,
2013-09-22 21:15:00,67.5,52.2,29.66,SE,129,3.0,10.0,58,0.00,,,0.00,0,WeatherCatV1.21B27,2013-09-23 02:15:00,
2013-09-22 21:16:00,67.5,52.2,29.66,SSE,150,2.0,7.0,58,0.00,,,0.00,0,WeatherCatV1.21B27,2013-09-23 02:16:00,
2013-09-22 21:17:00,67.4,52.1,29.66,SSE,150,2.0,7.0,58,0.00,,,0.00,0,WeatherCatV1.21B27,2013-09-23 02:17:00,
2013-09-22 21:20:00,67.3,52.0,29.66,SE,142,4.0,7.0,58,0.00,,,0.00,0,WeatherCatV1.21B27,2013-09-23 02:20:00,
2013-09-22 21:22:00,67.2,51.9,29.66,SE,138,3.0,7.0,58,0.00,,,0.00,0,WeatherCatV1.21B27,2013-09-23 02:22:00,
2013-09-22 21:25:00,67.1,51.8,29.66,SSE,162,1.0,7.0,58,0.00,,,0.00,0,WeatherCatV1.21B27,2013-09-23 02:25:00,
2013-09-22 21:27:00,67.0,52.2,29.66,SE,140,0.0,9.0,59,0.00,,,0.00,0,WeatherCatV1.21B27,2013-09-23 02:27:00,
2013-09-22 21:30:00,66.9,52.1,29.65,SE,146,6.0,14.0,59,0.00,,,0.00,0,WeatherCatV1.21B27,2013-09-23 02:30:00,
2013-09-22 21:32:00,66.8,51.5,29.66,South,186,3.0,14.0,58,0.00,,,0.00,0,WeatherCatV1.21B27,2013-09-23 02:32:00,
2013-09-22 21:35:00,66.6,51.8,29.66,ESE,102,9.0,13.0,59,0.00,,,0.00,0,WeatherCatV1.21B27,2013-09-23 02:35:00,
2013-09-22 21:36:00,66.6,51.8,29.66,SE,141,5.0,13.0,59,0.00,,,0.00,0,WeatherCatV1.21B27,2013-09-23 02:36:00,
2013-09-22 21:37:00,66.5,51.7,29.66,SE,143,1.0,5.0,59,0.00,,,0.00,0,WeatherCatV1.21B27,2013-09-23 02:37:00,
2013-09-22 21:38:00,66.5,51.7,29.66,ESE,123,2.0,13.0,59,0.00,,,0.00,0,WeatherCatV1.21B27,2013-09-23 02:38:00,
2013-09-22 21:41:00,66.4,51.6,29.66,SSE,148,4.0,10.0,59,0.00,,,0.00,0,WeatherCatV1.21B27,2013-09-23 02:41:00,
2013-09-22 21:42:00,66.4,51.6,29.66,SE,142,3.0,12.0,59,0.00,,,0.00,0,WeatherCatV1.21B27,2013-09-23 02:42:00,
2013-09-22 21:43:00,66.4,51.6,29.66,SE,144,5.0,12.0,59,0.00,,,0.00,0,WeatherCatV1.21B27,2013-09-23 02:43:00,
2013-09-22 21:46:00,66.4,51.6,29.66,South,182,2.0,11.0,59,0.00,,,0.00,0,WeatherCatV1.21B27,2013-09-23 02:46:00,
2013-09-22 21:47:00,66.3,51.5,29.66,South,173,1.0,11.0,59,0.00,,,0.00,0,WeatherCatV1.21B27,2013-09-23 02:47:00,
2013-09-22 21:48:00,66.3,51.5,29.66,SSE,155,11.0,11.0,59,0.00,,,0.00,0,WeatherCatV1.21B27,2013-09-23 02:48:00,
2013-09-22 21:51:00,66.3,51.1,29.66,SSE,150,4.0,13.0,58,0.00,,,0.00,0,WeatherCatV1.21B27,2013-09-23 02:51:00,
2013-09-22 21:52:00,66.3,51.1,29.66,SE,136,2.0,12.0,58,0.00,,,0.00,0,WeatherCatV1.21B27,2013-09-23 02:52:00,
2013-09-22 21:53:00,66.3,51.5,29.66,SE,142,7.0,8.0,59,0.00,,,0.00,0,WeatherCatV1.21B27,2013-09-23 02:53:00,
2013-09-22 21:56:00,66.1,51.3,29.66,East,96,3.0,11.0,59,0.00,,,0.00,0,WeatherCatV1.21B27,2013-09-23 02:56:00,
2013-09-22 21:57:00,66.0,51.2,29.66,SE,136,10.0,13.0,59,0.00,,,0.00,0,WeatherCatV1.21B27,2013-09-23 02:57:00,
2013-09-22 21:58:00,66.0,51.2,29.66,SE,134,4.0,13.0,59,0.00,,,0.00,0,WeatherCatV1.21B27,2013-09-23 02:58:00,
2013-09-22 22:01:00,66.0,51.2,29.66,SSW,200,1.0,11.0,59,0.00,,,0.00,0,WeatherCatV1.21B27,2013-09-23 03:01:00,
2013-09-22 22:02:00,66.0,51.2,29.66,SE,144,7.0,11.0,59,0.00,,,0.00,0,WeatherCatV1.21B27,2013-09-23 03:02:00,
2013-09-22 22:03:00,65.9,51.2,29.66,ESE,117,3.0,7.0,59,0.00,,,0.00,0,WeatherCatV1.21B27,2013-09-23 03:03:00,
2013-09-22 22:06:00,65.9,51.2,29.65,SE,127,10.0,10.0,59,0.00,,,0.00,0,WeatherCatV1.21B27,2013-09-23 03:06:00,
2013-09-22 22:07:00,65.9,51.2,29.66,SE,137,6.0,12.0,59,0.00,,,0.00,0,WeatherCatV1.21B27,2013-09-23 03:07:00,
2013-09-22 22:08:00,65.8,51.1,29.66,SE,142,7.0,12.0,59,0.00,,,0.00,0,WeatherCatV1.21B27,2013-09-23 03:08:00,
2013-09-22 22:11:00,65.9,50.7,29.66,SSW,213,6.0,8.0,58,0.00,,,0.00,0,WeatherCatV1.21B27,2013-09-23 03:11:00,
2013-09-22 22:12:00,65.9,50.7,29.66,SSW,194,4.0,8.0,58,0.00,,,0.00,0,WeatherCatV1.21B27,2013-09-23 03:12:00,
2013-09-22 22:13:00,65.9,50.7,29.66,SE,144,4.0,9.0,58,0.00,,,0.00,0,WeatherCatV1.21B27,2013-09-23 03:13:00,
2013-09-22 22:16:00,65.8,50.6,29.65,South,178,7.0,9.0,58,0.00,,,0.00,0,WeatherCatV1.21B27,2013-09-23 03:16:00,
2013-09-22 22:17:00,65.8,50.6,29.66,SE,132,6.0,9.0,58,0.00,,,0.00,0,WeatherCatV1.21B27,2013-09-23 03:17:00,
2013-09-22 22:18:00,65.8,50.6,29.65,SSE,163,6.0,12.0,58,0.00,,,0.00,0,WeatherCatV1.21B27,2013-09-23 03:18:00,
2013-09-22 22:19:00,65.8,50.6,29.65,South,175,10.0,12.0,58,0.00,,,0.00,0,WeatherCatV1.21B27,2013-09-23 03:19:00,
2013-09-22 22:21:00,65.6,50.4,29.65,SE,124,4.0,9.0,58,0.00,,,0.00,0,WeatherCatV1.21B27,2013-09-23 03:21:00,
2013-09-22 22:22:00,65.6,50.4,29.66,South,174,7.0,11.0,58,0.00,,,0.00,0,WeatherCatV1.21B27,2013-09-23 03:22:00,
2013-09-22 22:23:00,65.6,50.4,29.65,South,184,6.0,11.0,58,0.00,,,0.00,0,WeatherCatV1.21B27,2013-09-23 03:23:00,
2013-09-22 22:24:00,65.6,50.4,29.65,South,184,4.0,11.0,58,0.00,,,0.00,0,WeatherCatV1.21B27,2013-09-23 03:24:00,
2013-09-22 22:27:00,65.4,50.7,29.65,SE,136,4.0,13.0,59,0.00,,,0.00,0,WeatherCatV1.21B27,2013-09-23 03:27:00,
2013-09-22 22:29:00,65.4,50.7,29.65,SSE,156,9.0,10.0,59,0.00,,,0.00,0,WeatherCatV1.21B27,2013-09-23 03:29:00,
2013-09-22 22:32:00,65.3,50.6,29.65,SSW,192,5.0,10.0,59,0.00,,,0.00,0,WeatherCatV1.21B27,2013-09-23 03:32:00,
2013-09-22 22:34:00,65.2,50.5,29.65,SE,132,4.0,12.0,59,0.00,,,0.00,0,WeatherCatV1.21B27,2013-09-23 03:34:00,
2013-09-22 22:37:00,65.0,50.3,29.65,ESE,111,2.0,11.0,59,0.00,,,0.00,0,WeatherCatV1.21B27,2013-09-23 03:37:00,
2013-09-22 22:39:00,64.9,50.2,29.65,SSW,203,5.0,13.0,59,0.00,,,0.00,0,WeatherCatV1.21B27,2013-09-23 03:39:00,
2013-09-22 22:42:00,64.8,50.6,29.65,ESE,114,3.0,12.0,60,0.00,,,0.00,0,WeatherCatV1.21B27,2013-09-23 03:42:00,
2013-09-22 22:44:00,64.6,50.4,29.65,SSE,148,5.0,9.0,60,0.00,,,0.00,0,WeatherCatV1.21B27,2013-09-23 03:44:00,
2013-09-22 22:47:00,64.4,50.2,29.65,SE,139,3.0,12.0,60,0.00,,,0.00,0,WeatherCatV1.21B27,2013-09-23 03:47:00,
2013-09-22 22:49:00,64.3,50.6,29.66,SSE,156,6.0,10.0,61,0.00,,,0.00,0,WeatherCatV1.21B27,2013-09-23 03:49:00,
2013-09-22 22:52:00,64.1,50.4,29.66,ESE,121,3.0,9.0,61,0.00,,,0.00,0,WeatherCatV1.21B27,2013-09-23 03:52:00,
2013-09-22 22:55:00,63.9,50.6,29.66,South,178,5.0,10.0,62,0.00,,,0.00,0,WeatherCatV1.21B27,2013-09-23 03:55:00,
2013-09-22 22:57:00,63.8,50.5,29.66,SE,140,3.0,9.0,62,0.00,,,0.00,0,WeatherCatV1.21B27,2013-09-23 03:57:00,
2013-09-22 22:58:00,63.8,50.5,29.66,SE,140,3.0,9.0,62,0.00,,,0.00,0,WeatherCatV1.21B27,2013-09-23 03:58:00,
2013-09-22 23:00:00,63.5,50.2,29.66,South,187,5.0,11.0,62,0.00,,,0.00,0,WeatherCatV1.21B27,2013-09-23 04:00:00,
2013-09-22 23:01:00,63.5,50.2,29.66,SSE,153,12.0,14.0,62,0.00,,,0.00,0,WeatherCatV1.21B27,2013-09-23 04:01:00,
2013-09-22 23:06:00,63.2,50.4,29.66,SE,141,4.0,5.0,63,0.00,,,0.00,0,WeatherCatV1.21B27,2013-09-23 04:06:00,
2013-09-22 23:11:00,62.8,50.4,29.66,SE,126,5.0,7.0,64,0.00,,,0.00,0,WeatherCatV1.21B27,2013-09-23 04:11:00,
2013-09-22 23:12:00,62.8,50.4,29.66,SE,130,3.0,7.0,64,0.00,,,0.00,0,WeatherCatV1.21B27,2013-09-23 04:12:00,
2013-09-22 23:16:00,62.4,50.5,29.66,SE,130,4.0,13.0,65,0.00,,,0.00,0,WeatherCatV1.21B27,2013-09-23 04:16:00,
2013-09-22 23:17:00,62.4,50.5,29.66,SE,132,0.0,13.0,65,0.00,,,0.00,0,WeatherCatV1.21B27,2013-09-23 04:17:00,
2013-09-22 23:21:00,62.1,50.6,29.66,SSE,150,12.0,12.0,66,0.00,,,0.00,0,WeatherCatV1.21B27,2013-09-23 04:21:00,
2013-09-22 23:22:00,62.0,50.5,29.67,SSE,153,3.0,12.0,66,0.00,,,0.00,0,WeatherCatV1.21B27,2013-09-23 04:22:00,
2013-09-22 23:26:00,61.7,50.6,29.66,SE,146,3.0,10.0,67,0.00,,,0.00,0,WeatherCatV1.21B27,2013-09-23 04:26:00,
2013-09-22 23:27:00,61.7,50.6,29.66,SSE,149,4.0,11.0,67,0.00,,,0.00,0,WeatherCatV1.21B27,2013-09-23 04:27:00,
2013-09-22 23:28:00,61.6,50.1,29.66,SE,142,4.0,11.0,66,0.00,,,0.00,0,WeatherCatV1.21B27,2013-09-23 04:28:00,
2013-09-22 23:31:00,61.4,50.3,29.66,SE,141,3.0,9.0,67,0.00,,,0.00,0,WeatherCatV1.21B27,2013-09-23 04:31:00,
2013-09-22 23:32:00,61.3,50.2,29.66,SSE,159,2.0,6.0,67,0.00,,,0.00,0,WeatherCatV1.21B27,2013-09-23 04:32:00,
2013-09-22 23:33:00,61.3,50.2,29.66,SE,134,5.0,9.0,67,0.00,,,0.00,0,WeatherCatV1.21B27,2013-09-23 04:33:00,
2013-09-22 23:36:00,61.1,50.5,29.66,SSE,161,4.0,10.0,68,0.00,,,0.00,0,WeatherCatV1.21B27,2013-09-23 04:36:00,
2013-09-22 23:37:00,61.1,50.5,29.66,South,171,10.0,10.0,68,0.00,,,0.00,0,WeatherCatV1.21B27,2013-09-23 04:37:00,
2013-09-22 23:38:00,61.1,50.1,29.66,South,176,2.0,10.0,67,0.00,,,0.00,0,WeatherCatV1.21B27,2013-09-23 04:38:00,
2013-09-22 23:41:00,61.0,50.4,29.66,SE,137,10.0,13.0,68,0.00,,,0.00,0,WeatherCatV1.21B27,2013-09-23 04:41:00,
2013-09-22 23:42:00,61.0,50.4,29.66,SE,128,9.0,13.0,68,0.00,,,0.00,0,WeatherCatV1.21B27,2013-09-23 04:42:00,
2013-09-22 23:43:00,60.9,50.3,29.66,SE,129,3.0,13.0,68,0.00,,,0.00,0,WeatherCatV1.21B27,2013-09-23 04:43:00,
2013-09-22 23:44:00,60.9,49.9,29.66,ESE,119,3.0,7.0,67,0.00,,,0.00,0,WeatherCatV1.21B27,2013-09-23 04:44:00,
2013-09-22 23:46:00,60.9,50.3,29.66,SE,131,7.0,11.0,68,0.00,,,0.00,0,WeatherCatV1.21B27,2013-09-23 04:46:00,
2013-09-22 23:47:00,60.9,49.9,29.66,SW,217,4.0,11.0,67,0.00,,,0.00,0,WeatherCatV1.21B27,2013-09-23 04:47:00,
2013-09-22 23:48:00,60.9,49.9,29.66,SSE,150,4.0,11.0,67,0.00,,,0.00,0,WeatherCatV1.21B27,2013-09-23 04:48:00,
2013-09-22 23:49:00,60.9,49.9,29.66,SE,138,11.0,11.0,67,0.00,,,0.00,0,WeatherCatV1.21B27,2013-09-23 04:49:00,
2013-09-22 23:52:00,60.9,49.9,29.66,SE,140,1.0,8.0,67,0.00,,,0.00,0,WeatherCatV1.21B27,2013-09-23 04:52:00,
2013-09-22 23:53:00,61.0,50.0,29.67,SSE,161,3.0,6.0,67,0.00,,,0.00,0,WeatherCatV1.21B27,2013-09-23 04:53:00,
2013-09-22 23:54:00,60.9,49.9,29.66,SSE,157,2.0,7.0,67,0.00,,,0.00,0,WeatherCatV1.21B27,2013-09-23 04:54:00,
2013-09-22 23:57:00,61.0,50.0,29.66,SSE,168,6.0,10.0,67,0.00,,,0.00,0,WeatherCatV1.21B27,2013-09-23 04:57:00,
2013-09-22 23:58:00,61.0,50.0,29.67,SSW,212,12.0,12.0,67,0.00,,,0.00,0,WeatherCatV1.21B27,2013-09-23 04:58:00,
2013-09-22 23:59:00,61.1,50.1,29.66,South,177,1.0,12.0,67,0.00,,,0.00,0,WeatherCatV1.21B27,2013-09-23 04:59:00,